     2              OBSERVATION DATA    GPS                 RINEX VERSION / TYPE
ASRINEXO V2.9.7 UX USGS/MENLO_PARK 08-MAY-00 16:40          PGM / RUN BY / DATE
                                                            COMMENT
BIT 2 OF LLI (+4) FLAGS DATA COLLECTED UNDER "AS" CONDITION COMMENT
BIT 2 OF LLI (+4) FLAGS DATA COLLECTED UNDER "AS" CONDITION COMMENT
BIT 2 OF LLI (+4) FLAGS DATA COLLECTED UNDER "AS" CONDITION COMMENT
BIT 2 OF LLI (+4) FLAGS DATA COLLECTED UNDER "AS" CONDITION COMMENT
BIT 2 OF LLI (+4) FLAGS DATA COLLECTED UNDER "AS" CONDITION COMMENT
BIT 2 OF LLI (+4) FLAGS DATA COLLECTED UNDER "AS" CONDITION COMMENT
BIT 2 OF LLI (+4) FLAGS DATA COLLECTED UNDER "AS" CONDITION COMMENT
Original Marker Name: lae4 LAPE4__T8nR6e_S34S35_1974_SBCo   COMMENT
Campaign Name: Hector Mine Earthquake                       COMMENT
4-Character Station Name: LAE4                              COMMENT
6-Character Antenna Code: DMRCHT                            COMMENT
Vertical Measurement Point: BCR                             COMMENT
Vertical Offset to Rinex Ref. Point: 0.0348                 COMMENT
Radial Measurement Point: ECF                               COMMENT
Radial Offset to Rinex Ref. Point: 0.1897                   COMMENT
Antenna Height from Field Measurement: 1.1750 m             COMMENT
Additional Antenna Identification Info.:                    COMMENT
Turborogue and Ashtech Choke Ring                           COMMENT
Original XYZ: -2327545.1500 -4703414.5400 3614034.8279      COMMENT
New XYZ position is based on association with SCEC monument COMMENT
E1F2L0E7+0011. Position of that monument is believed to be  COMMENT
valid to within 1 m horizontally; vertical accuracy         COMMENT
should be no worse than 3-times this value.                 COMMENT
                                                            COMMENT
Revised Rinex header created by UCSD GPS archive for        COMMENT
GSAC on 16-Jun-2000 (2000:168) 04:13:42 GMT                 COMMENT
For assistance contact dagnew@ucsd.edu                      COMMENT
or anderson@python.ucsd.edu                                 COMMENT
                                                            COMMENT
T8N R6E S34S35S2S3 T7N 1974                                 MARKER NAME
GDH US GEOLOGICAL SURVEY                                    OBSERVER / AGENCY
591 ASHTECH Z-XII3 CD00                                     REC # / TYPE / VERS
805 DORNE-MARGOL. TYPE T                                    ANT # / TYPE
 -2327539.9032 -4703389.9571  3614017.2523                  APPROX POSITION XYZ
        1.1248        0.0000        0.0000                  ANTENNA: DELTA H/E/N
     1     1     0                                          WAVELENGTH FACT L1/2
     5    C1    L1    L2    P1    P2                        # / TYPES OF OBSERV
    30                                                      INTERVAL
  2000     5     6     0     1    0.000000                  TIME OF FIRST OBS
  2000     5     6     1     3   30.000000                  TIME OF LAST OBS
                                                            END OF HEADER
 00  5  6  0  1  0.0000000  0  8 17 26 23 21 22 03 06 29
  21025872.546   -24136917.085 9 -18137301.55447  21025871.962    21025879.9834
  23067323.505    -8601074.604 8  -6685905.64746  23067323.594    23067331.9114
  20815504.782   -21527782.624 9 -16520347.64648  20815504.206    20815511.7764
  22151982.789   -18619865.644 9 -14026044.52647  22151982.302    22151992.1304
  24746837.284    -3410062.794 8  -2642336.79145  24746836.370    24746853.6714
  22621715.955   -12670274.827 8  -9608089.26146  22621715.662    22621725.4294
  23178427.161   -13764788.339 8 -10344749.66946  23178427.069    23178439.5424
  22928712.023   -10052609.094 8  -7816929.33746  22928711.834    22928725.6004
 00  5  6  0  1 30.0000000  0  8 17 26 23 21 22 03 06 29
  21031055.197   -24109682.008 9 -18116079.41947  21031054.604    21031062.6324
  23083873.095    -8514106.075 8  -6618138.00846  23083873.157    23083881.5554
  20818797.651   -21510478.304 9 -16506863.75348  20818797.067    20818804.6594
  22142765.906   -18668300.345 9 -14063785.76147  22142765.433    22142775.2124
  24758050.224    -3351139.081 8  -2596422.39945  24758049.427    24758066.8044
  22607943.551   -12742648.420 8  -9664484.18446  22607943.277    22607953.0514
  23198824.416   -13657601.096 8 -10261227.36446  23198824.238    23198836.7734
  22909334.865   -10154434.816 8  -7896273.65546  22909334.708    22909348.4024
 00  5  6  0  2  0.0000000  0  8 17 26 23 21 22 03 06 29
  21036291.912   -24082162.942 9 -18094635.99147  21036291.319    21036299.3254
  23100494.683    -8426759.218 8  -6550075.56346  23100494.780    23100503.1574
  20822138.864   -21492920.108 9 -16493182.02948  20822138.274    20822145.8664
  22133592.312   -18716507.670 9 -14101349.80647  22133591.813    22133601.5314
  24769300.511    -3292019.641 8  -2550355.50945  24769299.730    24769317.0334
  22594248.389   -12814616.773 8  -9720563.33246  22594248.107    22594257.8064
  23219257.086   -13550227.948 8 -10177560.20646  23219256.852    23219269.4584
  22889993.298   -10256073.683 8  -7975472.37846  22889993.178    22890006.7284
 00  5  6  0  2 30.0000000  0  8 17 26 23 21 22 03 06 29
  21041583.079   -24054357.722 9 -18072969.59147  21041582.486    21041590.4974
  23117187.991    -8339035.317 8  -6481719.31846  23117188.074    23117196.4954
  20825528.400   -21475107.973 9 -16479302.43648  20825527.807    20825535.4054
  22124462.295   -18764485.926 9 -14138735.36647  22124461.774    22124471.4384
  24780587.668    -3232706.067 8  -2504137.34645  24780586.946    24780604.2364
  22580631.115   -12886176.065 8  -9776323.74346  22580630.795    22580640.4404
  23239724.830   -13442670.029 8 -10093749.06046  23239724.583    23239737.2404
  22870688.092   -10357521.645 8  -8054522.35546  22870687.893    22870701.4394
 00  5  6  0  3  0.0000000  0  8 17 26 23 21 22 03 06 29
  21046928.650   -24026266.499 9 -18051080.33447  21046928.045    21046936.0594
  23133952.379    -8250938.122 8  -6413072.20146  23133952.418    23133960.8944
  20828965.828   -21457043.964 9 -16465226.57748  20828965.247    20828972.8414
  22115375.641   -18812236.227 9 -14175943.29747  22115375.115    22115384.7444
  24791911.138    -3173201.871 8  -2457770.66445  24791910.328    24791927.7334
  22567091.936   -12957324.324 8  -9831763.85746  22567091.648    22567101.2594
  23260227.143   -13334930.354 8 -10009796.28846  23260226.879    23260239.6904
  22851419.546   -10458776.637 8  -8133421.96146  22851419.402    22851432.8464
 00  5  6  0  3 30.0000000  0  8 17 26 23 21 22 03 06 29
  21052328.986   -23997887.534 9 -18028966.86547  21052328.396    21052336.4014
  23150787.488    -8162469.198 8  -6344135.42446  23150787.514    23150796.0464
  20832451.127   -21438728.488 9 -16450954.77448  20832450.575    20832458.1184
  22106332.452   -18859758.011 9 -14212973.16347  22106331.945    22106341.5234
  24803270.548    -3113508.576 8  -2411256.62645  24803269.713    24803287.2844
  22553631.533   -13028058.610 8  -9886881.39546  22553631.266    22553640.8984
  23280763.692   -13227010.615 8  -9925703.21545  23280763.482    23280776.3574
  22832188.500   -10559835.319 8  -8212168.62746  22832188.346    22832201.6254
 00  5  6  0  4  0.0000000  0  8 17 26 23 21 22 03 06 29
  21057784.032   -23969221.305 9 -18006629.56047  21057783.420    21057791.4104
  23167692.524    -8073632.676 8  -6274912.21346  23167692.540    23167701.0964
  20835983.864   -21420164.017 9 -16436488.95148  20835983.279    20835990.8264
  22097332.478   -18907052.872 9 -14249826.21247  22097331.976    22097341.5474
  24814665.273    -3053629.794 8  -2364598.02245  24814664.554    24814682.0494
  22540250.201   -13098377.469 8  -9941675.23746  22540249.930    22540259.5514
  23301333.814   -13118914.332 8  -9841472.57745  23301333.652    23301346.6064
  22812995.031   -10660696.186 8  -8290761.14346  22812994.813    22813008.0034
 00  5  6  0  4 30.0000000  0  8 17 26 23 21 22 03 06 29
  21063293.936   -23940266.440 9 -17984067.33747  21063293.315    21063301.3244
  23184667.153    -7984430.614 8  -6205404.17046  23184667.199    23184675.7744
  20839563.811   -21401351.261 9 -16421829.65648  20839563.241    20839570.7574
  22088375.763   -18954120.530 9 -14286502.21947  22088375.256    22088384.7674
  24826094.937    -2993567.620 7  -2317796.55645  24826094.113    24826111.6284
  22526948.560   -13168277.654 8  -9996142.84146  22526948.298    22526957.8754
  23321937.236   -13010643.310 8  -9757105.78845  23321937.089    23321950.1524
  22793839.737   -10761356.151 8  -8369197.13746  22793839.524    22793852.6924
 00  5  6  0  5  0.0000000  0  8 17 26 23 21 22 03 06 29
  21068858.857   -23911022.582 9 -17961279.92247  21068858.253    21068866.2384
  23201710.689    -7894866.283 8  -6135613.82546  23201710.730    23201719.3694
  20843190.661   -21382291.928 9 -16406978.22448  20843190.110    20843197.6184
  22079462.135   -19000961.523 9 -14323001.59847  22079461.637    22079471.1404
  24837558.671    -2933325.899 8  -2270855.19545  24837557.786    24837575.5884
  22513726.892   -13237757.740 8 -10050283.08946  22513726.622    22513736.1534
  23342573.387   -12902200.615 8  -9672605.20145  23342573.243    23342586.3304
  22774723.094   -10861813.078 8  -8447474.90746  22774722.938    22774736.0004
 00  5  6  0  5 30.0000000  0  8 17 26 23 21 22 03 06 29
  21074478.937   -23881488.902 9 -17938266.68547  21074478.322    21074486.3314
  23218822.641    -7804942.272 8  -6065543.22346  23218822.663    23218831.4684
  20846864.240   -21362987.111 9 -16391935.50348  20846863.687    20846871.1794
  22070591.671   -19047575.589 9 -14359324.15947  22070591.188    22070600.6634
  24849056.045    -2872907.044 8  -2223775.80345  24849055.247    24849073.1754
  22500585.668   -13306815.115 8 -10104093.95746  22500585.379    22500594.8644
  23363241.767   -12793588.623 8  -9587972.70745  23363241.614    23363254.7564
  22755645.685   -10962063.996 8  -8525592.15946  22755645.565    22755658.4604
 00  5  6  0  6  0.0000000  0  8 17 26 23 21 22 03 06 29
  21080154.280   -23851664.797 9 -17915027.14447  21080153.653    21080161.6734
  23236002.574    -7714661.303 8  -5995194.46446  23236002.610    23236011.4244
  20850584.312   -21343437.991 9 -16376702.41448  20850583.751    20850591.2424
  22061764.277   -19093963.435 9 -14395470.44347  22061763.779    22061773.2514
  24860586.694    -2812313.388 7  -2176560.18945  24860585.944    24860604.0804
  22487525.378   -13375447.147 8 -10157573.38546  22487525.081    22487534.5784
  23383941.897   -12684809.621 8  -9503210.08545  23383941.704    23383954.8734
  22736607.938   -11062106.418 8  -8603546.95246  22736607.844    22736620.7144
 00  5  6  0  6 30.0000000  0  8 17 26 23 21 22 03 06 29
  21085885.024   -23821549.649 9 -17891560.80847  21085884.426    21085892.4304
  23253249.854    -7624026.465 8  -5924569.96546  23253249.930    23253258.7004
  20854350.541   -21323646.256 9 -16361280.27848  20854349.984    20854357.4854
  22052979.746   -19140125.887 9 -14431441.09847  22052979.250    22052988.6744
  24872150.287    -2751547.790 8  -2129210.60945  24872149.379    24872167.6554
  22474546.407   -13443651.713 8 -10210719.73146  22474546.126    22474555.6174
  23404673.265   -12575866.367 8  -9418319.48345  23404673.041    23404686.3004
  22717610.391   -11161937.992 8  -8681337.45146  22717610.296    22717623.0614
 00  5  6  0  7  0.0000000  0  7 17 26 23 21 03 06 29
  21091671.258   -23791142.805 9 -17867867.18447  21091670.650    21091678.6554
  23270564.019    -7533040.351 8  -5853671.75246  23270564.074    23270572.8374
  20858162.737   -21303613.027 9 -16345669.96248  20858162.175    20858169.6624
  22044238.173   -19186062.716 9 -14467235.94047  22044237.702    22044247.0694
  22461649.230   -13511426.445 8 -10263531.13946  22461648.964    22461658.4484
  23425435.442   -12466761.407 8  -9333302.86645  23425435.308    23425448.4854
  22698653.416   -11261556.093 8  -8758961.61746  22698653.320    22698666.0234
 00  5  6  0  7 30.0000000  0  7 17 26 23 21 03 06 29
  21097514.596   -23760435.879 9 -17843939.72747  21097513.995    21097521.9984
  23287945.897    -7441698.215 8  -5782496.11746  23287945.980    23287954.7164
  20862022.087   -21283332.063 9 -16329866.60548  20862021.513    20862029.0134
  22035540.930   -19231766.957 9 -14502849.54847  22035540.443    22035549.7784
  22448835.745   -13578761.612 8 -10316000.03046  22448835.455    22448844.9164
  23446229.348   -12357489.773 8  -9248156.37445  23446229.233    23446242.4684
  22679739.038   -11360950.511 8  -8836411.47846  22679738.924    22679751.5734
 00  5  6  0  8  0.0000000  0  8 17 26 23 21 09 03 06 29
  21103412.867   -23729440.339 9 -17819787.37447  21103412.272    21103420.2554
  23305392.646    -7350015.178 8  -5711054.85946  23305392.702    23305401.4124
  20865925.955   -21262817.017 9 -16313880.84648  20865925.370    20865932.8754
  22026885.615   -19277250.547 9 -14538291.21847  22026885.125    22026894.5084
  24471417.034    -1828474.191 7  -1403246.19345  24471416.911    24471429.2944
  22436104.111   -13645666.781 8 -10368133.85446  22436103.809    22436113.2364
  23467052.261   -12248066.000 8  -9162891.34045  23467052.058    23467065.3184
  22660865.399   -11460130.842 8  -8913694.51846  22660865.261    22660877.7964
 00  5  6  0  8 30.0000000  0  8 17 26 23 21 09 03 06 29
  21109366.423   -23698154.141 9 -17795408.53847  21109365.850    21109373.8584
  23322904.063    -7257992.468 8  -5639348.89646  23322904.039    23322912.8284
  20869874.439   -21242067.655 9 -16297712.50548  20869873.877    20869881.3524
  22018272.499   -19322512.196 9 -14573559.94747  22018272.018    22018281.4314
  24459531.505    -1890932.551 7  -1451914.93445  24459531.249    24459543.7574
  22423454.898   -13712138.562 8 -10419929.98546  22423454.595    22423463.9754
  23487903.769   -12138491.482 8  -9077508.87245  23487903.553    23487916.9174
  22642033.243   -11559093.245 8  -8990807.75746  22642033.097    22642045.5514
 00  5  6  0  9  0.0000000  0  8 17 26 23 21 09 03 06 29
  21115375.896   -23666574.221 9 -17770800.82447  21115375.290    21115383.3024
  23340479.960    -7165630.734 8  -5567378.77046  23340479.972    23340488.6754
  20873867.678   -21221082.999 9 -16281360.81648  20873867.103    20873874.5774
  22009701.971   -19367550.352 9 -14608654.53147  22009701.501    22009710.8824
  24447687.370    -1953172.386 7  -1500413.33145  24447687.139    24447699.7964
  22410889.043   -13778171.837 8 -10471384.40646  22410888.765    22410898.1664
  23508783.974   -12028766.267 8  -8992008.97045  23508783.787    23508797.2314
  22623243.393   -11657832.819 8  -9067747.37446  22623243.335    22623255.6954
 00  5  6  0  9 30.0000000  0  8 17 26 23 21 09 03 06 29
  21121441.501   -23634699.330 9 -17745963.26247  21121440.891    21121448.9424
  23358120.131    -7072931.740 8  -5495145.83446  23358120.140    23358128.7084
  20877905.591   -21199863.609 9 -16264826.22348  20877905.007    20877912.4774
  22001174.115   -19412364.310 9 -14643574.41747  22001173.625    22001182.9244
  24435885.772    -2015189.737 7  -1548738.38845  24435885.568    24435898.1324
  22398407.202   -13843763.910 8 -10522495.03646  22398406.956    22398416.3704
  23529692.545   -11918891.884 8  -8906392.82545  23529692.392    23529705.8904
  22604496.672   -11756346.012 8  -9144510.57846  22604496.623    22604508.9404
 00  5  6  0 10  0.0000000  0  8 17 26 23 21 09 03 06 29
  21127563.197   -23602529.508 9 -17720895.88147  21127562.603    21127570.6544
  23375823.625    -6979899.321 8  -5422653.10046  23375823.674    23375832.2154
  20881987.824   -21178411.331 9 -16248110.15048  20881987.251    20881994.7154
  21992688.611   -19456955.771 9 -14678320.92547  21992688.119    21992697.3304
  24424126.949    -2076982.342 7  -1596888.30945  24424126.659    24424139.2164
  22386009.622   -13908913.590 8 -10573260.94246  22386009.338    22386018.7514
  23550628.865   -11808871.820 8  -8820663.14745  23550628.719    23550642.1744
  22585793.392   -11854631.130 8  -9221096.06146  22585793.341    22585805.6124
 00  5  6  0 10 30.0000000  0  8 17 26 23 21 09 03 06 29
  21133741.296   -23570063.438 9 -17695597.66247  21133740.716    21133748.7604
  23393590.192    -6886535.581 8  -5349902.19746  23393590.254    23393598.7994
  20886114.200   -21156727.122 9 -16231213.35648  20886113.625    20886121.1054
  21984245.521   -19501324.045 9 -14712893.52247  21984245.024    21984254.2614
  24412411.625    -2138546.536 7  -1644860.25145  24412411.309    24412423.7754
  22373696.769   -13973617.826 8 -10623679.75246  22373696.483    22373705.8684
  23571592.549   -11698707.973 8  -8734821.44145  23571592.436    23571605.8724
  22567134.066   -11952685.330 8  -9297501.62246  22567134.018    22567146.1934
 00  5  6  0 11  0.0000000  0  8 17 26 23 21 09 03 06 29
  21139975.877   -23537300.636 9 -17670068.22047  21139975.290    21139983.3514
  23411419.202    -6792843.695 8  -5276895.57945  23411419.261    23411427.8534
  20890284.398   -21134812.525 9 -16214137.03748  20890283.808    20890291.2844
  21975844.707   -19545469.834 9 -14747292.74547  21975844.250    21975853.5674
  24400740.197    -2199879.371 7  -1692651.89345  24400739.900    24400752.2764
  22361469.044   -14037874.492 8 -10673749.80347  22361468.747    22361478.1254
  23592583.078   -11588403.075 8  -8648869.84145  23592582.924    23592596.4984
  22548519.124   -12050506.051 8  -9373725.24446  22548519.066    22548531.2234
 00  5  6  0 11 30.0000000  0  8 17 26 23 21 09 03 06 29
  21146267.062   -23504240.269 9 -17644306.91147  21146266.454    21146274.5184
  23429310.119    -6698826.287 8  -5203635.31645  23429310.235    23429318.7814
  20894498.261   -21112668.547 9 -16196881.98148  20894497.690    20894505.1584
  21967486.242   -19589393.435 9 -14781518.84347  21967485.786    21967495.1274
  24389113.549    -2260977.575 7  -1740260.74045  24389113.278    24389125.5894
  22349326.982   -14101681.004 8 -10723469.08847  22349326.693    22349336.0384
  23613600.047   -11477959.498 8  -8562810.16845  23613599.824    23613613.5024
  22529949.127   -12148090.781 8  -9449764.98646  22529949.061    22529961.1284
 00  5  6  0 12  0.0000000  0  8 17 26 23 21 09 03 06 29
  21152614.852   -23470882.362 9 -17618313.74547  21152614.270    21152622.3484
  23447262.472    -6604486.747 8  -5130124.02445  23447262.618    23447271.0224
  20898755.357   -21090297.201 9 -16179449.75248  20898754.783    20898762.2324
  21959169.924   -19633095.749 9 -14815572.50747  21959169.454    21959178.7534
  24377531.968    -2321838.554 7  -1787684.74845  24377531.686    24377543.9574
  22337270.913   -14165035.968 8 -10772836.50447  22337270.609    22337279.9604
  23634642.828   -11367380.215 8  -8476644.74845  23634642.597    23634656.2974
  22511424.426   -12245437.471 8  -9525619.24746  22511424.376    22511436.3694
 00  5  6  0 12 30.0000000  0  8 17 26 23 21 09 03 06 29
  21159019.380   -23437226.405 9 -17592088.33547  21159018.796    21159026.8774
  23465275.468    -6509827.972 8  -5056363.98545  23465275.588    23465284.0394
  20903055.502   -21067699.876 9 -16161841.43248  20903054.916    20903062.3834
  21950895.750   -19676576.723 9 -14849453.70347  21950895.242    21950904.4804
  24365996.111    -2382459.272 7  -1834921.51945  24365995.882    24366008.0474
  22325301.221   -14227937.145 8 -10821850.32947  22325300.906    22325310.2274
  23655710.897   -11256667.837 8  -8390375.61645  23655710.672    23655724.4714
  22492945.501   -12342543.727 8  -9601286.15746  22492945.438    22492957.3634
 00  5  6  0 13  0.0000000  0  8 17 26 23 21 09 03 06 29
  21165480.857   -23403271.325 9 -17565629.84747  21165480.273    21165488.3364
  23483348.709    -6414852.467 8  -4982357.16345  23483348.726    23483357.3314
  20907398.468   -21044877.323 9 -16144057.61448  20907397.890    20907405.3314
  21942663.545   -19719836.642 9 -14883162.64847  21942663.041    21942672.2474
  24354506.705    -2442836.337 7  -1881968.45145  24354506.396    24354518.4284
  22313418.304   -14290382.116 8 -10870508.66447  22313417.982    22313427.2824
  23676803.916   -11145824.638 8  -8304004.53845  23676803.740    23676817.4894
  22474512.912   -12439406.449 8  -9676763.30746  22474512.809    22474524.6654
 00  5  6  0 13 30.0000000  0  8 17 26 23 21 09 03 06 29
  21171999.318   -23369016.686 9 -17538937.93347  21171998.720    21172006.7914
  23501481.601    -6319563.258 8  -4908105.86945  23501481.623    23501490.3184
  20911784.005   -21021831.173 9 -16126099.56048  20911783.414    20911790.8604
  21934473.278   -19762876.350 9 -14916699.99147  21934472.781    21934482.0024
  24343063.966    -2502967.195 7  -1928823.51845  24343063.709    24343075.8104
  22301622.452   -14352369.061 8 -10918810.09647  22301622.148    22301631.4714
  23697921.209   -11034853.295 8  -8217533.59945  23697921.080    23697934.7204
  22456127.073   -12536023.635 8  -9752049.14046  22456126.997    22456138.7004
 00  5  6  0 14  0.0000000  0  8 17 26 23 21 09 03 06 29
  21178575.040   -23334461.243 9 -17512011.62647  21178574.428    21178582.4984
  23519673.797    -6223962.815 8  -4833612.08845  23519673.799    23519682.4414
  20916211.914   -20998562.216 9 -16107967.89348  20916211.328    20916218.7884
  21926325.048   -19805695.236 9 -14950065.26847  21926324.581    21926333.8034
  24331668.787    -2562847.846 7  -1975483.56245  24331668.616    24331680.7144
  22289914.352   -14413894.916 8 -10966752.24247  22289914.084    22289923.3784
  23719062.456   -10923755.955 8  -8130964.49345  23719062.385    23719076.0294
  22437788.621   -12632392.024 8  -9827141.10446  22437788.532    22437800.1064
 00  5  6  0 14 30.0000000  0  8 17 26 23 21 09 03 06 29
  21185207.858   -23299605.557 9 -17484851.35447  21185207.256    21185215.3124
  23537924.545    -6128054.690 8  -4758878.53445  23537924.564    23537933.1814
  20920681.784   -20975072.784 9 -16089664.41948  20920681.214    20920688.6674
  21918218.540   -19848295.098 9 -14983259.87647  21918218.054    21918227.2724
  24320321.705    -2622475.984 7  -2021946.87345  24320321.622    24320333.7004
  22278294.310   -14474958.609 8 -11014334.26947  22278294.018    22278303.2154
  23740226.963   -10812536.207 8  -8044300.03045  23740226.923    23740240.6984
  22419497.713   -12728510.231 8  -9902038.13646  22419497.625    22419509.1324
 00  5  6  0 15  0.0000000  0  8 17 26 23 21 09 03 06 29
  21191898.042   -23264448.341 9 -17457456.12647  21191897.435    21191905.5154
  23556233.361    -6031841.279 8  -4683907.10645  23556233.359    23556242.0084
  20925193.513   -20951363.424 9 -16071189.57448  20925192.930    20925200.4124
  21910153.698   -19890675.878 9 -15016283.77547  21910153.187    21910162.3864
  24309023.244    -2681848.158 7  -2068210.71745  24309023.173    24309035.5594
  22266762.677   -14535557.738 8 -11061554.29347  22266762.371    22266771.5304
  23761414.536   -10701195.779 8  -7957541.51845  23761414.555    23761428.3154
  22401254.968   -12824375.385 8  -9976737.98446  22401254.864    22401266.3074
 00  5  6  0 15 30.0000000  0  8 17 26 23 21 09 03 06 29
  21198645.661   -23228989.505 9 -17429825.87447  21198645.043    21198653.0994
  23574599.629    -5935326.050 8  -4608700.47845  23574599.594    23574608.3214
  20929746.692   -20927436.142 9 -16052544.92148  20929746.118    20929753.5964
  21902130.407   -19932837.872 9 -15049137.18347  21902129.911    21902139.1044
  24297774.102    -2740962.271 7  -2114273.49045  24297774.121    24297786.3494
  22255319.753   -14595690.431 8 -11108410.86447  22255319.453    22255328.6224
  23782624.541   -10589737.894 8  -7870691.49745  23782624.391    23782638.4324
  22383060.728   -12919985.249 8 -10051238.89846  22383060.660    22383072.0324
 00  5  6  0 16  0.0000000  0  8 17 26 23 21 09 03 06 29
  21205450.856   -23193227.968 9 -17401959.75147  21205450.262    21205458.3184
  23593022.867    -5838511.366 8  -4533260.51945  23593022.881    23593031.6364
  20934341.202   -20903291.760 9 -16033731.10248  20934340.618    20934348.1154
  21894148.756   -19974781.262 9 -15081820.26847  21894148.257    21894157.4214
  24286574.845    -2799814.267 7  -2160132.01245  24286574.874    24286586.9284
  22243965.982   -14655354.127 8 -11154901.97747  22243965.703    22243974.9704
  23803856.377   -10478164.617 7  -7783751.54845  23803856.213    23803870.3884
  22364915.679   -13015337.093 8 -10125538.77646  22364915.592    22364926.8934
 00  5  6  0 16 30.0000000  0  8 17 26 23 21 09 03 06 29
  21212313.714   -23157163.332 9 -17373857.45147  21212313.111    21212321.1554
  23611502.522    -5741400.384 8  -4457589.68445  23611502.517    23611511.3404
  20938976.698   -20878931.963 9 -16014749.42548  20938976.109    20938983.6254
  21886208.587   -20016507.051 9 -15114333.79147  21886208.074    21886217.1984
  24275426.109    -2858401.865 7  -2205784.52145  24275426.082    24275437.9534
  22232701.726   -14714547.467 8 -11201026.58547  22232701.461    22232710.7614
  23825109.574   -10366478.880 7  -7696723.97045  23825109.389    23825123.7344
  22346820.102   -13110428.950 8 -10199636.05646  22346820.009    22346831.2364
 00  5  6  0 17  0.0000000  0  8 17 26 23 21 09 03 06 29
  21219234.351   -23120795.114 9 -17345518.58947  21219233.760    21219241.8134
  23630038.001    -5643995.949 8  -4381690.19045  23630038.085    23630046.8204
  20943652.926   -20854357.964 9 -15995600.83948  20943652.331    20943659.8744
  21878309.746   -20058015.451 9 -15146677.91547  21878309.242    21878318.3694
  24264328.107    -2916721.737 7  -2251228.41945  24264327.976    24264339.9854
  22221527.615   -14773267.802 8 -11246782.62547  22221527.377    22221536.5454
  23846383.812   -10254683.157 7  -7609610.71345  23846383.642    23846397.9214
  22328774.516   -13205257.946 8 -10273528.52746  22328774.432    22328785.5734
 00  5  6  0 17 30.0000000  0  8 17 26 23 21 09 03 06 29
  21226212.773   -23084123.237 9 -17316943.11147  21226212.199    21226220.2394
  23648628.689    -5546301.265 8  -4305564.51945  23648628.735    23648637.5484
  20948369.655   -20829571.385 9 -15976286.60248  20948369.056    20948376.5984
  21870452.200   -20099306.967 9 -15178853.04647  21870451.681    21870460.8304
  24253281.582    -2974771.251 8  -2296461.66345  24253281.403    24253293.2534
  22210443.872   -14831513.662 8 -11292168.95047  22210443.580    22210452.6024
  23867678.441   -10142780.281 7  -7522413.97445  23867678.220    23867692.7414
  22310779.374   -13299822.249 8 -10347214.74346  22310779.260    22310790.3314
 00  5  6  0 18  0.0000000  0  8 17 26 23 21 09 03 06 29
  21233249.206   -23047146.556 9 -17288130.12247  21233248.618    21233256.6794
  23667274.215    -5448318.922 8  -4229214.71245  23667274.168    23667283.0994
  20953126.676   -20804573.019 9 -15956807.33948  20953126.083    20953133.6164
  21862635.712   -20140382.280 9 -15210859.70847  21862635.193    21862644.3474
  24242287.211    -3032546.889 8  -2341481.51745  24242287.004    24242298.7284
  22199450.744   -14889282.647 8 -11337183.67747  22199450.431    22199459.4214
  23888993.068   -10030772.542 8  -7435135.49245  23888992.784    23889007.4334
  22292835.112   -13394119.036 8 -10420692.51046  22292835.002    22292845.9514
 00  5  6  0 18 30.0000000  0  8 17 26 23 21 09 03 06 29
  21240343.779   -23009864.423 9 -17259079.12147  21240343.196    21240351.2764
  23685973.910    -5350051.598 8  -4152642.83445  23685973.931    23685982.8314
  20957923.719   -20779364.210 9 -15937164.09748  20957923.132    20957930.6674
  21854860.419   -20181241.440 9 -15242697.94147  21854859.925    21854868.9764
  24231345.519    -3090045.527 8  -2386285.50445  24231345.249    24231356.9344
  22188548.661   -14946572.710 8 -11381825.21747  22188548.338    22188557.4264
  23910327.191    -9918662.422 8  -7347777.23245  23910326.925    23910341.5604
  22274942.202   -13488145.839 8 -10493959.90946  22274942.099    22274952.9814
 00  5  6  0 19  0.0000000  0  8 17 26 23 21 09 03 06 29
  21247496.542   -22972276.472 9 -17229789.82347  21247495.945    21247504.0154
  23704727.273    -5251502.339 8  -4075851.27545  23704727.358    23704736.2314
  20962760.563   -20753946.400 9 -15917358.00048  20962759.983    20962767.5184
  21847126.203   -20221884.667 9 -15274367.92147  21847125.720    21847134.7134
  24220457.072    -3147264.337 8  -2430871.45945  24220456.837    24220468.4944
  22177738.106   -15003382.015 8 -11426092.14147  22177737.792    22177746.9704
  23931680.191    -9806452.740 8  -7260341.42045  23931679.882    23931694.5444
  22257101.162   -13581900.223 8 -10567015.03546  22257101.040    22257111.8674
 00  5  6  0 19 30.0000000  0  8 17 26 23 21 09 03 06 29
  21254707.562   -22934382.242 9 -17200261.87447  21254706.963    21254715.0344
  23723533.841    -5152674.080 8  -3998842.29745  23723533.879    23723542.6624
  20967636.887   -20728320.985 9 -15897390.13048  20967636.297    20967643.8284
  21839432.964   -20262312.550 9 -15305870.09447  21839432.486    21839441.4814
  24209622.394    -3204200.556 8  -2475237.20845  24209622.088    24209633.8664
  22167019.482   -15059708.623 9 -11469982.94147  22167019.202    22167028.3534
  23953051.726    -9694145.905 8  -7172829.91845  23953051.407    23953066.0844
  22239312.407   -13675379.836 8 -10639856.06146  22239312.275    22239323.0524
 00  5  6  0 20  0.0000000  0  8 17 26 23 21 09 03 06 29
  21261976.953   -22896181.341 9 -17170494.95547  21261976.350    21261984.4374
  23742392.891    -5053569.744 8  -3921618.19145  23742392.794    23742401.6744
  20972552.463   -20702489.345 9 -15877261.56148  20972551.894    20972559.4044
  21831780.508   -20302526.023 9 -15337205.18447  21831780.043    21831789.0944
  24198842.094    -3260851.254 8  -2519380.46245  24198841.810    24198853.4204
  22156393.179   -15115550.655 9 -11513496.14547  22156392.858    22156401.9084
  23974441.203    -9581744.472 8  -7085244.69545  23974440.880    23974455.6834
  22221576.319   -13768582.765 8 -10712481.48646  22221576.163    22221586.8804
 00  5  6  0 20 30.0000000  0  8 17 26 23 21 09 03 06 29
  21269304.980   -22857672.310 9 -17140487.93547  21269304.397    21269312.4754
  23761304.025    -4954191.164 8  -3844180.41145  23761303.942    23761312.8754
  20977507.264   -20676451.608 9 -15856972.40448  20977506.694    20977514.2344
  21824169.039   -20342524.343 9 -15368372.63347  21824168.573    21824177.5844
  24188116.845    -3317212.378 8  -2563298.07845  24188116.506    24188128.1444
  22145859.500   -15170905.319 8 -11556629.58247  22145859.181    22145868.1314
  23995848.404    -9469250.091 8  -6997587.03745  23995848.139    23995862.9554
  22203893.628   -13861505.064 8 -10784888.24146  22203893.475    22203904.1174
 00  5  6  0 21  0.0000000  0  8 17 26 23 21 09 03 06 29
  21276691.358   -22818856.677 9 -17110242.00647  21276690.783    21276698.8854
  23780266.405    -4854543.269 8  -3766532.75545  23780266.364    23780275.2524
  20982500.608   -20650211.284 9 -15836525.38348  20982500.048    20982507.5764
  21816598.110   -20382309.909 9 -15399374.30147  21816597.594    21816606.5234
  24177446.813    -3373282.845 8  -2606989.19545  24177446.482    24177458.1594
  22135418.508   -15225772.595 8 -11599383.23947  22135418.189    22135427.1324
  24017272.423    -9356667.380 8  -6909860.53745  24017272.208    24017287.0394
  22186264.322   -13954146.770 8 -10857076.35646  22186264.179    22186274.7384
 00  5  6  0 21 30.0000000  0  8 17 26 23 21 09 03 06 29
  21284136.416   -22779732.766 9 -17079755.86747  21284135.829    21284143.9154
  23799279.852    -4754627.850 8  -3688676.64345  23799279.731    23799288.5764
  20987532.540   -20623768.332 9 -15815920.47448  20987531.964    20987539.4864
  21809067.744   -20421881.951 9 -15430209.58947  21809067.247    21809076.1004
  24166832.936    -3429058.323 8  -2650450.45345  24166832.720    24166844.3054
  22125070.866   -15280148.914 8 -11641754.32947  22125070.582    22125079.5394
  24038712.976    -9243997.741 8  -6822066.29945  24038712.715    24038727.7294
  22168689.102   -14046504.129 8 -10929042.91446  22168688.966    22168699.4814
 00  5  6  0 22  0.0000000  0  8 17 26 23 21 09 03 06 29
  21291640.200   -22740300.128 9 -17049029.15147  21291639.605    21291647.7314
  23818343.589    -4654447.680 8  -3610614.25345  23818343.424    23818352.2884
  20992602.745   -20597124.216 9 -15795158.81248  20992602.164    20992609.6754
  21801577.839   -20461241.069 9 -15460878.95147  21801577.362    21801586.2194
  24156275.856    -3484535.962 8  -2693679.63545  24156275.539    24156287.0894
  22114817.051   -15334032.811 8 -11683741.70747  22114816.781    22114825.7484
  24060169.531    -9131243.718 8  -6734206.29245  24060169.371    24060184.4294
  22151168.433   -14138574.887 8 -11000786.14146  22151168.305    22151178.7414
 00  5  6  0 22 30.0000000  0  8 17 26 23 21 09 03 06 29
  21299202.819   -22700558.339 9 -17018061.54947  21299202.239    21299210.3234
  23837457.066    -4554005.952 8  -3532348.03545  23837456.882    23837465.7944
  20997710.950   -20570280.420 9 -15774241.55248  20997710.358    20997717.8734
  21794128.352   -20500387.917 9 -15491382.91347  21794127.889    21794136.7664
  24145775.855    -3539713.214 8  -2736674.74645  24145775.568    24145787.0364
  22104657.393   -15387422.466 9 -11725343.96547  22104657.114    22104666.0684
  24081641.705    -9018407.961 7  -6646282.61845  24081641.476    24081656.6464
  22133702.671   -14230356.888 8 -11072304.37046  22133702.537    22133712.9724
 00  5  6  0 23  0.0000000  0  8 17 26 23 21 09 03 06 29
  21306824.406   -22660506.747 9 -16986852.53647  21306823.823    21306831.9134
  23856619.731    -4453305.327 8  -3453880.06945  23856619.626    23856628.6064
  21002856.933   -20543238.084 9 -15753169.59148  21002856.345    21002863.8544
  21786719.320   -20539322.512 9 -15521721.48147  21786718.868    21786727.7074
  24135333.603    -3594587.015 8  -2779433.39445  24135333.337    24135344.7514
  22094592.112   -15440315.950 8 -11766559.60447  22094591.782    22094600.7314
  24103128.759    -8905493.051 7  -6558297.33845  24103128.561    24103143.8614
  22116292.376   -14321847.810 8 -11143595.79746  22116292.230    22116302.6034
 00  5  6  0 23 30.0000000  0  8 17 26 23 21 09 03 06 29
  21314505.040   -22620144.764 9 -16955401.65347  21314504.466    21314512.5674
  23875831.149    -4352348.640 7  -3375212.60745  23875831.056    23875840.0204
  21008040.463   -20515998.348 9 -15731943.81748  21008039.867    21008047.3894
  21779350.534   -20578045.753 9 -15551895.36547  21779350.030    21779358.8454
  24124949.697    -3649154.429 8  -2821953.28945  24124949.385    24124960.7374
  22084621.478   -15492711.305 8 -11807387.08547  22084621.175    22084630.1624
  24124630.416    -8792501.479 7  -6470252.31145  24124630.345    24124645.6604
  22098937.997   -14413044.886 8 -11214658.24946  22098937.824    22098948.1324
 00  5  6  0 24  0.0000000  0  9 17 26 23 21 09 03 15 06 29
  21322244.716   -22579472.624 9 -16923709.09847  21322244.117    21322252.2114
  23895090.662    -4251139.321 8  -3296348.27145  23895090.603    23895099.6184
  21013261.205   -20488562.980 9 -15710565.59448  21013260.622    21013268.1354
  21772021.740   -20616558.222 9 -15581905.00747  21772021.264    21772030.0594
  24114624.502    -3703412.922 8  -2864232.49145  24114624.303    24114635.6134
  22074745.935   -15544607.055 8 -11847825.26347  22074745.622    22074754.6064
  24281993.142    -4074409.518 7  -3160829.38745  24281992.437    24282006.5914
  24146146.219    -8679436.168 7  -6382149.79045  24146146.140    24146161.5324
  22081639.791   -14503946.655 8 -11285490.60246  22081639.619    22081649.8694
 00  5  6  0 24 30.0000000  0  9 17 26 23 21 09 03 15 06 29
  21330043.357   -22538490.387 9 -16891774.90747  21330042.778    21330050.8864
  23914397.546    -4149680.853 7  -3217289.80145  23914397.477    23914406.5584
  21018518.848   -20460933.856 9 -15689036.39848  21018518.273    21018525.7684
  21764732.820   -20654861.296 9 -15611751.48147  21764732.350    21764741.1384
  24104358.538    -3757360.216 8  -2906269.18045  24104358.351    24104369.4924
  22064965.661   -15596002.246 8 -11887873.40447  22064965.352    22064974.2874
  24264647.249    -4165562.678 7  -3231857.65745  24264646.375    24264660.5204
  24167675.490    -8566300.317 7  -6293992.30545  24167675.366    24167690.9204
  22064398.128   -14594551.362 8 -11356091.46946  22064397.945    22064408.1744
 00  5  6  0 25  0.0000000  0  9 17 26 23 21 09 03 15 06 29
  21337901.452   -22497196.053 9 -16859597.51747  21337900.849    21337908.9794
  23933751.577    -4047974.447 7  -3138038.11545  23933751.419    23933760.6274
  21023813.460   -20433110.526 9 -15667355.87248  21023812.867    21023820.3724
  21757484.046   -20692953.584 9 -15641433.70747  21757483.578    21757492.3584
  24094152.718    -3810991.547 8  -2948059.68345  24094152.575    24094163.5014
  22055281.380   -15646893.501 9 -11927528.87347  22055281.077    22055289.9284
  24247293.992    -4256753.850 7  -3302915.51245  24247293.159    24247307.1844
  24189218.076    -8453094.985 7  -6205780.67145  24189217.892    24189233.3754
  22047213.702   -14684855.057 8 -11426457.78846  22047213.542    22047223.7304
 00  5  6  0 25 30.0000000  0  9 17 26 23 21 09 03 15 06 29
  21345818.965   -22455589.233 9 -16827176.62947  21345818.377    21345826.5044
  23953152.284    -3946023.260 7  -3058595.71345  23953152.198    23953161.3144
  21029144.727   -20405094.508 9 -15645525.20248  21029144.127    21029151.6014
  21750275.191   -20730836.123 9 -15670952.49047  21750274.738    21750283.5344
  24084007.467    -3864304.661 8  -2989602.22045  24084007.310    24084018.2424
  22045693.382   -15697279.022 9 -11966790.25847  22045693.084    22045701.8464
  24229933.708    -4347982.249 7  -3374002.36245  24229932.826    24229946.9474
  24210773.227    -8339823.118 7  -6117517.19045  24210773.198    24210788.7164
  22030087.034   -14774855.455 8 -11496587.76646  22030086.888    22030097.0204
 00  5  6  0 26  0.0000000  0  9 17 26 23 21 09 03 15 06 29
  21353795.989   -22413669.624 9 -16794512.01247  21353795.395    21353803.5684
  23972599.147    -3843830.251 7  -2978964.88845  23972599.005    23972608.0834
  21034512.402   -20376887.324 9 -15623545.58048  21034511.810    21034519.2584
  21743106.106   -20768509.470 9 -15700308.27247  21743105.641    21743114.4284
  24073923.223    -3917296.582 8  -3030894.48745  24073923.061    24073934.0704
  22036201.806   -15747157.556 9 -12005656.59247  22036201.505    22036210.2944
  24212566.436    -4439247.119 7  -3445117.64145  24212565.620    24212579.6364
  24232340.517    -8226487.184 7  -6029203.80745  24232340.300    24232356.1464
  22013018.471   -14864550.692 8 -11566479.96646  22013018.315    22013028.3604
 00  5  6  0 26 30.0000000  0  9 17 26 23 21 09 03 15 06 29
  21361832.674   -22371436.815 9 -16761603.34947  21361832.081    21361840.2304
  23992091.364    -3741398.129 7  -2899147.73845  23992091.161    23992100.2434
  21039916.152   -20348490.317 9 -15601418.04448  21039915.560    21039923.0244
  21735976.800   -20805973.963 9 -15729501.31447  21735976.327    21735985.0534
  24063900.821    -3969964.289 8  -3071934.10045  24063900.528    24063911.4934
  22026806.936   -15796527.373 8 -12044126.52547  22026806.649    22026815.5284
  24195192.390    -4530547.703 8  -3516260.79145  24195191.657    24195205.4434
  24253919.471    -8113089.766 7  -5940842.51645  24253919.470    24253935.1854
  21996008.410   -14953938.356 8 -11636132.49646  21996008.261    21996018.2444
 00  5  6  0 27  0.0000000  0  9 17 26 23 21 09 03 15 06 29
  21369928.981   -22328890.495 9 -16728450.39447  21369928.406    21369936.5444
  24011628.419    -3638730.198 7  -2819146.83445  24011628.285    24011637.4244
  21045355.783   -20319904.927 9 -15579143.71548  21045355.184    21045362.6324
  21728887.114   -20843230.499 9 -15758532.30847  21728886.645    21728895.3014
  24053940.531    -4022305.274 7  -3112719.16045  24053940.195    24053951.2454
  22017509.147   -15845386.583 8 -12082198.58747  22017508.886    22017517.8434
  24177811.568    -4621883.392 8  -3587431.30945  24177810.910    24177824.6634
  24275509.779    -7999633.546 8  -5852435.40545  24275509.794    24275525.5004
  21979057.290   -15043016.333 8 -11705543.72346  21979057.185    21979067.0774
 00  5  6  0 27 30.0000000  0  9 17 26 23 21 09 03 15 06 29
  21378084.972   -22286030.609 9 -16695053.09747  21378084.360    21378092.5254
  24031209.719    -3535829.682 8  -2738964.69645  24031209.699    24031218.8314
  21050830.961   -20291132.699 9 -15556723.79847  21050830.363    21050837.8284
  21721836.901   -20880279.523 9 -15787401.60447  21721836.396    21721845.0624
  24044042.915    -4074317.027 7  -3153247.66745  24044042.497    24044053.4884
  22008308.937   -15893733.704 9 -12119871.61847  22008308.685    22008317.5894
  24160424.399    -4713253.922 8  -3658628.96745  24160423.627    24160437.2834
  24297110.762    -7886121.595 8  -5763984.85545  24297110.780    24297126.5294
  21962165.431   -15131782.907 8 -11774712.29147  21962165.320    21962175.1784
 00  5  6  0 28  0.0000000  0 10 17 26 23 21 09 03 15 31 06 29
  21386300.267   -22242858.996 9 -16661412.89447  21386299.673    21386307.8374
  24050834.444    -3432701.520 7  -2658605.16245  24050834.444    24050843.5194
  21056341.009   -20262177.173 9 -15534161.05047  21056340.409    21056347.8664
  21714825.493   -20917124.089 9 -15816111.58247  21714825.000    21714833.7164
  24034207.963    -4125998.915 7  -3193519.11845  24034207.444    24034218.6104
  21999206.124   -15941569.427 9 -12157146.16947  21999205.857    21999214.6294
  24143030.229    -4804660.579 8  -3729854.74645  24143029.509    24143043.0444
  24490019.738    -4067819.323 7  -3140986.37345  24490019.123    24490031.2964
  24318721.350    -7772558.704 8  -5675494.63245  24318721.369    24318737.1474
  21945332.908   -15220237.805 8 -11843638.00347  21945332.792    21945342.5764
 00  5  6  0 28 30.0000000  0 10 17 26 23 21 09 03 15 31 06 29
  21394575.490   -22199372.354 9 -16627527.21547  21394574.894    21394583.0584
  24070502.509    -3329345.808 8  -2578068.29745  24070502.508    24070511.5444
  21061886.253   -20233036.725 9 -15511454.20847  21061885.670    21061893.1094
  21707853.479   -20953761.958 9 -15844660.50047  21707852.986    21707861.6954
  24024436.999    -4177345.045 7  -3233528.95845  24024436.589    24024447.5644
  21990201.468   -15988889.520 9 -12194018.93547  21990201.181    21990209.8204
  24125629.821    -4896099.658 8  -3801105.77645  24125629.095    24125642.6684
  24472602.944    -4159344.990 7  -3212304.97045  24472602.310    24472614.5214
  24340341.683    -7658944.476 8  -5586964.35745  24340341.801    24340357.3504
  21928560.600   -15308376.168 8 -11912317.07447  21928560.484    21928570.1884
 00  5  6  0 29  0.0000000  0 10 17 26 23 21 09 03 15 31 06 29
  21402910.836   -22155569.916 9 -16593395.46447  21402910.233    21402918.4234
  24090213.377    -3225764.896 8  -2497355.95345  24090213.362    24090222.3264
  21067466.532   -20203712.089 9 -15488603.84447  21067465.937    21067473.3754
  21700920.852   -20990193.082 9 -15873048.32447  21700920.345    21700928.9894
  24014730.481    -4228352.395 7  -3273274.81245  24014730.049    24014741.1254
  21981295.268   -16035691.882 9 -12230488.27147  21981294.976    21981303.5894
  24108223.468    -4987569.673 8  -3872380.91045  24108222.695    24108236.2934
  24455241.587    -4250579.890 7  -3283396.98445  24455240.859    24455253.0204
  24361971.411    -7545281.042 7  -5498395.75645  24361971.427    24361987.0814
  21911849.023   -15396195.250 8 -11980747.34947  21911848.913    21911858.5594
 00  5  6  0 29 30.0000000  0 10 17 26 23 21 09 03 15 31 06 29
  21411306.304   -22111451.470 9 -16559017.47447  21411305.712    21411313.8984
  24109966.492    -3121961.924 8  -2416470.58045  24109966.478    24109975.5384
  21073081.625   -20174204.525 9 -15465610.94047  21073081.030    21073088.4694
  21694027.462   -21026417.911 9 -15901275.39847  21694026.938    21694035.5454
  24005088.896    -4279018.480 7  -3312754.74245  24005088.473    24005099.6364
  21972487.767   -16081974.939 8 -12266552.94747  21972487.494    21972496.2194
  24090811.388    -5079069.978 8  -3943679.64145  24090810.619    24090824.2054
  24437935.831    -4341521.696 7  -3354260.68345  24437935.229    24437947.3454
  24383610.034    -7431571.103 7  -5409790.92845  24383610.037    24383625.8704
  21895198.653   -15483692.795 8 -12048927.08147  21895198.540    21895208.1224
 00  5  6  0 30  0.0000000  0 10 17 26 23 21 09 03 15 31 06 29
  21419761.971   -22067016.946 9 -16524393.18947  21419761.358    21419769.5474
  24129761.361    -3017939.703 8  -2335414.36645  24129761.344    24129770.4664
  21078731.258   -20144515.573 9 -15442476.69247  21078730.658    21078738.0914
  21687173.120   -21062437.181 9 -15929342.29647  21687172.633    21687181.2434
  23995512.799    -4329340.293 7  -3351966.41245  23995512.473    23995523.6314
  21963779.416   -16127736.850 9 -12302211.53547  21963779.152    21963788.0264
  24073393.550    -5170599.986 8  -4015001.56145  24073392.867    24073406.4574
  24420686.167    -4432168.067 7  -3424894.05845  24420685.581    24420697.8684
  24405256.839    -7317817.679 8  -5321152.26345  24405256.782    24405272.7064
  21878609.863   -15570867.000 8 -12116854.85447  21878609.734    21878619.2784
 00  5  6  0 30 30.0000000  0 10 17 26 23 21 09 03 15 31 06 29
  21428277.776   -22022266.128 9 -16489522.43647  21428277.182    21428285.3334
  24149597.382    -2913701.533 8  -2254189.88245  24149597.341    24149606.4534
  21084415.102   -20114646.788 9 -15419202.31547  21084414.514    21084421.9484
  21680357.770   -21098251.812 9 -15957249.73847  21680357.271    21680365.8964
  23986002.855    -4379315.197 7  -3390907.77845  23986002.426    23986013.6314
  21955170.538   -16172976.450 9 -12337463.12747  21955170.262    21955179.2034
  24055970.339    -5262158.959 8  -4086346.08945  24055969.639    24055983.1264
  24403493.350    -4522516.750 7  -3495295.52545  24403492.724    24403505.0544
  24426911.476    -7204023.308 7  -5232481.68545  24426911.261    24426927.4804
  21862082.956   -15657715.669 8 -12184528.97247  21862082.825    21862092.3254
 00  5  6  0 31  0.0000000  0 10 17 26 23 21 09 03 15 31 06 29
  21436853.786   -21977199.060 9 -16454405.25847  21436853.185    21436861.3594
  24169473.822    -2809250.504 8  -2172799.53245  24169473.752    24169482.9784
  21090132.891   -20084599.635 9 -15395788.94547  21090132.285    21090139.7354
  21673581.290   -21133862.451 9 -15984998.23247  21673580.792    21673589.3314
  23976559.244    -4428940.872 7  -3429577.01345  23976558.864    23976570.0384
  21946661.347   -16217692.777 9 -12372306.97747  21946661.053    21946669.8954
  24038541.799    -5353746.371 8  -4157712.77145  24038540.955    24038554.3404
  24386357.632    -4612565.470 8  -3565463.28345  24386357.006    24386369.2344
  24448573.325    -7090190.707 8  -5143781.31145  24448573.084    24448589.5084
  21845618.342   -15744237.233 8 -12251948.20747  21845618.194    21845627.6524
 00  5  6  0 31 30.0000000  0 10 17 26 23 21 09 03 15 31 06 29
  21445490.071   -21931815.117 9 -16419041.16647  21445489.486    21445497.6544
  24189390.204    -2704589.216 8  -2091245.37045  24189390.224    24189399.4194
  21095884.421   -20054375.176 9 -15372237.41647  21095883.814    21095891.2364
  21666843.467   -21169269.894 9 -16012588.39247  21666842.957    21666851.4394
  23967182.721    -4478214.276 7  -3467971.74045  23967182.425    23967193.3914
  21938252.085   -16261884.055 9 -12406741.70347  21938251.774    21938260.4774
  24021108.011    -5445361.075 8  -4229100.71245  24021107.104    24021120.3614
  24369279.607    -4702311.292 8  -3635395.04145  24369278.890    24369291.0294
  24470241.983    -6976322.445 8  -5055053.17045  24470241.793    24470258.2794
  21829216.472   -15830428.957 8 -12319110.42747  21829216.318    21829225.7374
 00  5  6  0 32  0.0000000  0 10 17 26 23 21 09 03 15 31 06 29
  21454186.692   -21886114.055 9 -16383429.97947  21454186.096    21454194.2634
  24209346.047    -2599720.709 8  -2009529.73145  24209346.039    24209355.2884
  21101669.474   -20023974.688 9 -15348548.72147  21101668.859    21101676.2824
  21660144.183   -21204474.339 9 -16040020.37147  21660143.675    21660152.1714
  23957873.697    -4527132.918 7  -3506090.03645  23957873.339    23957884.3514
  21929942.960   -16305548.759 9 -12440766.11147  21929942.647    21929951.2494
  24003669.084    -5537002.410 8  -4300509.37445  24003668.236    24003681.3624
  24352259.579    -4791751.640 8  -3705088.74845  24352258.902    24352270.9664
  24491917.014    -6862421.059 7  -4966299.24845  24491916.798    24491933.4294
  21812877.670   -15916289.072 8 -12386014.24947  21812877.540    21812886.9114
 00  5  6  0 32 30.0000000  0 10 17 26 23 21 09 03 15 31 06 29
  21462943.801   -21840095.169 9 -16347571.12347  21462943.224    21462951.3854
  24229340.807    -2494647.569 8  -1927654.62145  24229340.886    24229350.0814
  21107487.779   -19993399.137 9 -15324723.61647  21107487.161    21107494.5844
  21653483.527   -21239476.214 9 -16067294.50847  21653483.006    21653491.5104
  23948632.627    -4575693.866 7  -3543929.60945  23948632.357    23948643.3834
  21921734.296   -16348685.299 9 -12474378.95647  21921733.980    21921742.5734
  23986225.394    -5628668.944 8  -4371937.66845  23986224.652    23986237.5924
  24335298.231    -4880883.870 8  -3774542.35145  24335297.474    24335309.5614
  24513597.819    -6748488.931 7  -4877521.26845  24513597.599    24513614.3584
  21796602.480   -16001815.104 8 -12452657.75347  21796602.356    21796611.7234
 00  5  6  0 33  0.0000000  0  9 17 26 23 21 09 03 15 31 29
  21471762.338   -21793753.664 9 -16311460.87647  21471761.739    21471769.9124
  24249374.877    -2389368.018 8  -1845618.69045  24249374.977    24249384.2214
  21113340.105   -19962644.991 9 -15300759.34347  21113339.509    21113346.9104
  21646862.250   -21274271.237 9 -16094407.46347  21646861.749    21646870.2054
  23939461.165    -4623889.638 7  -3581484.61045  23939460.857    23939471.9574
  21913627.273   -16391287.291 8 -12507575.26447  21913626.962    21913635.6714
  23968777.859    -5720355.337 7  -4443381.45045  23968777.091    23968790.0634
  24318396.806    -4969700.768 8  -3843750.24645  24318396.105    24318408.0834
  21780392.091   -16087000.391 8 -12519035.73747  21780391.959    21780401.3304
 00  5  6  0 33 30.0000000  0  9 17 26 23 21 09 03 15 31 29
  21480641.306   -21747094.402 9 -16275103.02647  21480640.702    21480648.9064
  24269446.742    -2283889.904 7  -1763428.01945  24269446.782    24269456.0604
  21119225.139   -19931718.861 9 -15276661.05947  21119224.555    21119231.9624
  21640279.143   -21308865.371 9 -16121363.88647  21640278.617    21640287.0494
  23930358.847    -4671722.641 7  -3618756.95045  23930358.398    23930369.5144
  21905621.311   -16433358.421 9 -12540357.90747  21905621.034    21905629.8254
  23951325.805    -5812065.697 7  -4514843.90145  23951325.054    23951337.9264
  24301554.996    -5058204.897 8  -3912714.42445  24301554.404    24301566.2064
  21764246.050   -16171847.691 8 -12585150.35747  21764245.916    21764255.2734
 00  5  6  0 34  0.0000000  0  9 17 26 23 21 09 03 15 31 29
  21489580.515   -21700118.593 9 -16238498.52447  21489579.903    21489588.1184
  24289555.513    -2178217.725 7  -1681086.12445  24289555.721    24289564.9414
  21125142.357   -19900623.481 9 -15252430.88947  21125141.769    21125149.1864
  21633733.919   -21343260.504 9 -16148165.23947  21633733.408    21633741.7924
  23921325.681    -4719191.572 7  -3655745.59545  23921325.261    23921336.3144
  21897716.483   -16474898.818 9 -12572726.99547  21897716.176    21897724.9914
  23933869.034    -5903800.537 7  -4586325.39945  23933868.228    23933881.3504
  24284772.874    -5146394.884 8  -3981433.80245  24284772.252    24284784.0764
  21748164.460   -16256356.502 8 -12651001.22747  21748164.329    21748173.6254
 00  5  6  0 34 30.0000000  0  9 17 26 23 21 09 03 15 31 29
  21498580.177   -21652825.179 9 -16201646.53047  21498579.553    21498587.8004
  24309700.839    -2072353.290 7  -1598594.39445  24309701.074    24309710.3084
  21131091.792   -19869359.082 9 -15228069.01547  21131091.210    21131098.6424
  21627226.687   -21377456.160 9 -16174811.15747  21627226.173    21627234.5164
  23912362.475    -4766293.118 7  -3692447.97545  23912362.066    23912373.1894
  21889913.129   -16515905.942 9 -12604680.54247  21889912.799    21889921.6014
  23916408.050    -5995558.105 7  -4657824.63545  23916407.276    23916420.4404
  24268051.195    -5234267.679 7  -4049906.02845  24268050.658    24268062.3544
  21732147.825   -16340523.873 8 -12716586.03647  21732147.668    21732156.9424
 00  5  6  0 35  0.0000000  0  9 17 26 23 21 09 03 15 31 29
  21507640.454   -21605213.201 9 -16164546.32047  21507639.811    21507648.0514
  24329882.338    -1966298.959 7  -1515954.74545  24329882.543    24329891.9334
  21137073.196   -19837926.387 9 -15203576.00247  21137072.609    21137080.0494
  21620757.371   -21411452.549 9 -16201301.79747  21620756.842    21620765.1874
  23903469.855    -4813023.741 7  -3728861.31145  23903469.413    23903480.4584
  21882211.495   -16556378.026 9 -12636217.17347  21882211.150    21882219.9384
  23898943.091    -6087337.038 7  -4729340.51345  23898942.217    23898955.3404
  24251390.481    -5321820.039 7  -4118128.49645  24251389.852    24251401.5424
  21716196.711   -16424347.073 8 -12781902.66947  21716196.560    21716205.7824
 00  5  6  0 35 30.0000000  0  9 17 26 23 21 09 03 15 31 29
  21516761.562   -21557281.742 9 -16127197.15947  21516760.916    21516769.1424
  24350099.357    -1860057.315 7  -1433169.13945  24350099.726    24350109.1254
  21143086.553   -19806326.013 9 -15178952.33347  21143085.966    21143093.3894
  21614325.878   -21445249.821 9 -16227637.28047  21614325.364    21614333.7094
  23894648.422    -4859380.406 7  -3764983.26345  23894648.000    23894658.9834
  21874611.995   -16596313.363 9 -12667335.56547  21874611.682    21874620.4024
  23881474.113    -6179135.761 7  -4800871.79745  23881473.260    23881486.3014
  24234791.323    -5409049.059 8  -4186099.06345  24234790.663    24234802.2694
  21700311.519   -16507823.664 8 -12846949.21747  21700311.367    21700320.5664
 00  5  6  0 36  0.0000000  0  9 17 26 23 21 09 03 15 31 29
  21525943.452   -21509030.592 9 -16089598.87547  21525942.810    21525951.0614
  24370351.535    -1753631.147 7  -1350239.77145  24370351.847    24370361.3254
  21149131.612   -19774559.201 9 -15154198.97047  21149131.011    21149138.4074
  21607932.269   -21478848.256 9 -16253817.83247  21607931.790    21607940.0834
  23885898.548    -4905360.546 7  -3800811.81745  23885898.177    23885909.1324
  21867114.854   -16635710.599 9 -12698034.65547  21867114.552    21867123.2294
  23864001.598    -6270953.368 8  -4872417.78745  23864000.956    23864013.7694
  24218254.129    -5495952.383 8  -4253815.85945  24218253.373    24218265.0304
  21684492.601   -16590951.940 9 -12911724.34347  21684492.468    21684501.5994
 00  5  6  0 36 30.0000000  0  9 17 26 23 21 09 03 15 31 29
  21535186.302   -21460459.143 9 -16051751.02247  21535185.661    21535193.9144
  24390638.412    -1647022.725 7  -1267168.35245  24390638.782    24390648.4424
  21155208.159   -19742626.764 9 -15129316.55347  21155207.545    21155214.9544
  21601576.405   -21512248.617 9 -16279844.03547  21601575.900    21601584.1444
  23877220.840    -4950961.201 7  -3836344.65845  23877220.525    23877231.4234
  21859720.471   -16674567.886 9 -12728313.00647  21859720.161    21859728.8434
  23846525.861    -6362788.344 8  -4943977.31845  23846525.145    23846538.0584
  24201779.400    -5582526.658 8  -4321276.23845  24201778.667    24201790.3224
  21668740.589   -16673728.874 8 -12976225.69747  21668740.443    21668749.5244
 00  5  6  0 37  0.0000000  0  9 17 26 23 21 09 03 15 31 29
  21544490.046   -21411567.567 9 -16013653.71847  21544489.420    21544497.6834
  24410959.459    -1540235.182 7  -1183957.37845  24410959.784    24410969.4324
  21161315.898   -19710530.296 9 -15104306.32147  21161315.286    21161322.7144
  21595258.085   -21545451.306 9 -16305716.20247  21595257.575    21595265.8534
  23868615.946    -4996179.886 7  -3871579.87445  23868615.592    23868626.4374
  21852429.068   -16712884.152 9 -12758169.78447  21852428.788    21852437.4554
  23829046.914    -6454639.982 7  -5015549.83345  23829046.195    23829059.2204
  24185367.721    -5668769.896 7  -4388478.65845  24185367.189    24185378.6464
  21653055.700   -16756152.818 8 -13040452.00147  21653055.562    21653064.6014
 00  5  6  0 37 30.0000000  0  9 17 26 23 21 09 03 15 31 29
  21553854.771   -21362355.669 9 -15975306.81047  21553854.157    21553862.4304
  24431314.101    -1433271.535 7  -1100609.13845  24431314.263    24431323.8874
  21167454.653   -19678270.956 9 -15079169.16647  21167454.037    21167461.4834
  21588977.262   -21578456.986 9 -16331434.85747  21588976.752    21588985.0404
  23860084.177    -5041014.088 8  -3906515.49245  23860083.878    23860094.6894
  21845240.918   -16750658.219 9 -12787604.07147  21845240.635    21845249.2664
  23811565.035    -6546507.503 8  -5087134.72245  23811564.257    23811577.2004
  24169019.593    -5754679.454 7  -4455421.06345  24169018.997    24169030.5094
  21637438.308   -16838222.131 9 -13104401.95747  21637438.164    21637447.1724
 00  5  6  0 38  0.0000000  0  9 17 26 23 21 09 03 15 31 29
  21563280.538   -21312822.949 9 -15936709.91447  21563279.942    21563288.2264
  24451701.708    -1326134.428 7  -1017125.72345  24451701.879    24451711.3334
  21173624.166   -19645849.859 9 -15053905.97047  21173623.565    21173630.9934
  21582733.878   -21611266.098 9 -16357000.33847  21582733.355    21582741.5804
  23851626.099    -5085461.144 7  -3941149.44245  23851625.893    23851636.6144
  21838156.209   -16787888.705 9 -12816614.79447  21838155.919    21838164.5534
  23794080.350    -6638389.570 8  -5158730.93445  23794079.571    23794092.4974
  24152735.312    -5840253.105 7  -4522101.70445  24152734.690    24152746.2984
  21621888.869   -16919934.378 9 -13168073.69747  21621888.718    21621897.7124
 00  5  6  0 38 30.0000000  0  9 17 26 23 21 09 03 15 31 29
  21572767.409   -21262969.215 9 -15897862.88847  21572766.804    21572775.0924
  24472121.864    -1218826.316 8   -933509.06445  24472122.003    24472131.4214
  21179824.298   -19613268.070 9 -15028517.56247  21179823.693    21179831.1044
  21576527.769   -21643879.106 9 -16382413.01347  21576527.251    21576535.4764
  23843242.255    -5129518.212 8  -3975479.50245  23843242.017    23843252.6854
  21831175.171   -16824574.373 9 -12845200.99047  21831174.862    21831183.4864
  23776593.158    -6730285.050 8  -5230337.58845  23776592.398    23776605.1974
  24136515.568    -5925487.810 7  -4588518.21345  24136515.018    24136526.6064
  21606407.777   -17001287.535 8 -13231465.62547  21606407.616    21606416.5864
 00  5  6  0 39  0.0000000  0  9 17 26 23 21 09 03 15 31 29
  21582315.365   -21212794.470 9 -15858765.72647  21582314.764    21582323.0504
  24492573.923    -1111350.322 8   -849761.56945  24492574.104    24492583.3874
  21186054.765   -19580526.813 9 -15003004.89247  21186054.150    21186061.5554
  21570358.759   -21676296.883 9 -16407673.55647  21570358.272    21570366.5194
  23834933.139    -5173182.884 7  -4009503.81745  23834932.869    23834943.5034
  21824297.991   -16860713.923 9 -12873361.63747  21824297.653    21824306.3444
  23759103.471    -6822193.162 8  -5301954.12145  23759102.736    23759115.4884
  24120360.744    -6010381.257 7  -4654668.82945  24120360.203    24120371.9244
  21590995.406   -17082279.639 8 -13294576.21747  21590995.235    21591004.1484
 00  5  6  0 39 30.0000000  0  9 17 26 23 21 09 03 15 31 29
  21591924.520   -21162298.361 9 -15819418.14047  21591923.902    21591932.2064
  24513057.403    -1003709.250 8   -765885.47445  24513057.543    24513066.8874
  21192315.283   -19547627.431 9 -14977369.00247  21192314.686    21192322.0904
  21564227.001   -21708519.475 9 -16432782.00447  21564226.497    21564234.7244
  23826699.061    -5216452.685 8  -4043220.44345  23826698.840    23826709.3694
  21817524.933   -16896306.187 9 -12901095.83047  21817524.602    21817533.2884
  23741611.598    -6914112.934 8  -5373579.74545  23741610.905    23741623.5374
  24104271.444    -6094930.960 7  -4720551.57545  24104270.801    24104282.4794
  21575652.090   -17162908.594 9 -13357403.83047  21575651.917    21575660.7914
 00  5  6  0 40  0.0000000  0  9 17 26 23 21 09 03 15 31 29
  21601594.909   -21111480.258 9 -15779819.64947  21601594.287    21601602.5864
  24533571.889     -895905.447 8   -681882.55945  24533571.971    24533581.3094
  21198605.801   -19514570.514 9 -14951610.36447  21198605.201    21198612.6084
  21558132.270   -21740547.203 9 -16457738.61447  21558131.756    21558139.9694
  23818540.700    -5259324.593 8  -4076627.00545  23818540.447    23818551.0514
  21810856.289   -16931349.641 9 -12928402.38747  21810855.959    21810864.6514
  23724117.764    -7006042.731 8  -5445213.18545  23724117.106    23724129.6844
  24088247.946    -6179133.918 7  -4786164.14745  24088247.294    24088259.0294
  21560378.286   -17243172.202 8 -13419946.76347  21560378.131    21560386.9794
 00  5  6  0 40 30.0000000  0  9 17 26 23 21 09 03 15 31 29
  21611326.543   -21060340.166 8 -15739970.26847  21611325.920    21611334.2574
  24554116.814     -787941.741 8   -597755.00645  24554116.899    24554126.1974
  21204926.008   -19481357.365 9 -14925729.98647  21204925.406    21204932.8264
  21552074.397   -21772381.034 9 -16482544.13847  21552073.920    21552082.1304
  23810458.623    -5301796.059 8  -4109721.54445  23810458.353    23810468.8354
  21804292.317   -16965843.106 9 -12955280.38547  21804292.023    21804300.6294
  23706622.251    -7097981.884 8  -5516853.90145  23706621.578    23706634.0384
  24072291.060    -6262987.999 8  -4851504.88445  24072290.460    24072302.0064
  21545174.391   -17323068.794 9 -13482203.71047  21545174.236    21545183.0494
 00  5  6  0 41  0.0000000  0  9 17 26 23 21 09 03 15 31 29
  21621119.470   -21008878.109 9 -15699870.00347  21621118.871    21621127.1934
  24574691.619     -679821.417 8   -513505.49045  24574691.605    24574700.8654
  21211275.711   -19447989.345 9 -14899728.92347  21211275.100    21211282.5454
  21546053.373   -21804021.521 9 -16507199.00247  21546052.898    21546061.1204
  23802453.117    -5343864.912 8  -4142502.35445  23802452.825    23802463.2174
  21797833.312   -16999785.773 9 -12981729.18547  21797832.994    21797841.4784
  23689125.080    -7189929.485 8  -5588501.19145  23689124.341    23689136.8564
  24056400.952    -6346490.866 8  -4916571.97145  24056400.390    24056411.7304
  21530040.674   -17402596.503 9 -13544173.21447  21530040.513    21530049.2624
 00  5  6  0 41 30.0000000  0  9 17 26 23 21 09 03 15 31 29
  21630973.746   -20957093.749 9 -15659518.58847  21630973.139    21630981.4524
  24595295.702     -571546.873 7   -429135.78545  24595295.671    24595305.0424
  21217654.704   -19414467.490 9 -14873607.98847  21217654.104    21217661.5404
  21540068.966   -21835469.560 9 -16531703.90647  21540068.481    21540076.6994
  23794524.783    -5385528.677 8  -4174967.51745  23794524.533    23794534.7774
  21791479.324   -17033176.268 9 -13007747.72747  21791479.013    21791487.4344
  23671626.593    -7281884.374 8  -5660154.20145  23671625.785    23671638.1644
  24040578.075    -6429640.084 8  -4981363.46345  24040577.505    24040588.7594
  21514977.570   -17481753.156 8 -13605853.58947  21514977.401    21514986.1104
 00  5  6  0 42  0.0000000  0  8 17 23 21 09 03 15 31 29
  21640889.610   -20904985.657 9 -15618914.92347  21640888.994    21640897.3304
  21224063.025   -19380791.557 9 -14847366.99547  21224062.407    21224069.8434
  21534121.407   -21866723.829 9 -16556057.82147  21534120.938    21534129.1284
  23786674.222    -5426783.295 8  -4207113.86645  23786673.949    23786684.1364
  21785230.837   -17066012.225 9 -13033334.15847  21785230.529    21785238.9384
  23654127.132    -7373844.082 8  -5731810.96745  23654126.329    23654138.6414
  24024823.348    -6512431.542 8  -5045876.17645  24024822.732    24024833.9814
  21499985.674   -17560535.510 9 -13667242.29247  21499985.510    21499994.2104
 00  5  6  0 42 30.0000000  0  8 17 23 21 09 03 15 31 29
  21650866.918   -20852554.729 9 -15578059.68847  21650866.287    21650874.6284
  21230500.211   -19346963.948 9 -14821007.81247  21230499.601    21230507.0494
  21528210.397   -21897786.304 9 -16580262.29147  21528209.910    21528218.0554
  23778901.760    -5467627.589 8  -4238940.48345  23778901.449    23778911.6064
  21779087.806   -17098293.841 9 -13058488.63447  21779087.492    21779095.9874
  23636626.716    -7465808.845 8  -5803471.63845  23636625.864    23636638.1004
  24009136.903    -6594864.135 8  -5110109.24945  24009136.281    24009147.5414
  21485065.091   -17638942.874 9 -13728338.79647  21485064.919    21485073.6074
 00  5  6  0 43  0.0000000  0  8 17 23 21 09 03 15 31 29
  21660905.645   -20799801.065 9 -15536952.97447  21660905.027    21660913.3764
  21236966.041   -19312985.801 9 -14794531.33047  21236965.395    21236972.8594
  21522335.728   -21928657.734 9 -16604317.88947  21522335.218    21522343.3784
  23771207.865    -5508059.159 8  -4270445.50045  23771207.566    23771217.6704
  21773050.451   -17130020.022 9 -13083210.29947  21773050.121    21773058.7094
  23619125.516    -7557777.209 8  -5875135.11845  23619124.690    23619136.9624
  23993519.213    -6676935.222 8  -5174060.61345  23993518.663    23993529.8914
  21470216.262   -17716973.451 9 -13789141.70347  21470216.119    21470224.7614
 00  5  6  0 43 30.0000000  0  8 17 23 21 09 03 15 31 29
  21671005.839   -20746724.217 9 -15495594.42547  21671005.225    21671013.5854
  21243460.366   -19278857.747 9 -14767938.03747  21243459.729    21243467.1824
  21516497.394   -21959337.915 9 -16628224.47047  21516496.889    21516505.1154
  23763592.942    -5548075.250 8  -4301626.76345  23763592.677    23763602.7654
  21767119.041   -17161189.422 9 -13107498.12147  21767118.727    21767127.3754
  23601623.846    -7649747.911 8  -5946800.44245  23601623.117    23601635.3274
  23977970.856    -6758642.156 8  -5237728.24645  23977970.317    23977981.5724
  21455439.576   -17794625.014 9 -13849649.27947  21455439.409    21455448.0274
 00  5  6  0 44  0.0000000  0  8 17 23 21 09 03 15 31 29
  21681167.570   -20693324.304 8 -15453984.13647  21681166.940    21681175.3114
  21249982.945   -19244581.333 9 -14741229.13947  21249982.313    21249989.7714
  21510695.242   -21989828.249 9 -16651983.11947  21510694.746    21510702.9124
  23756057.509    -5587673.644 8  -4332482.55045  23756057.264    23756067.3214
  21761293.813   -17191801.147 9 -13131351.37547  21761293.490    21761302.1244
  23584121.984    -7741720.053 8  -6018466.87745  23584121.253    23584133.4214
  23962492.082    -6839982.809 8  -5301110.45745  23962491.612    23962502.8134
  21440735.345   -17871895.804 9 -13909860.14447  21440735.178    21440743.7634
 00  5  6  0 44 30.0000000  0  8 17 23 21 09 03 15 31 29
  21691390.775   -20639601.156 8 -15412121.97947  21691390.143    21691398.5204
  21256533.591   -19210157.365 9 -14714405.26547  21256532.968    21256540.4204
  21504929.169   -22020129.072 9 -16675594.09947  21504928.638    21504936.7684
  23748602.166    -5626851.607 8  -4363010.73545  23748601.945    23748611.9644
  21755574.926   -17221854.017 9 -13154769.16847  21755574.609    21755583.1774
  23566620.082    -7833692.333 7  -6090133.40645  23566619.190    23566631.5204
  23947083.660    -6920954.552 8  -5364205.20545  23947083.129    23947094.2844
  21426103.928   -17948783.800 9 -13969772.73247  21426103.777    21426112.2924
 00  5  6  0 45  0.0000000  0  8 17 23 21 09 03 15 31 29
  21701675.481   -20585554.681 8 -15370007.87547  21701674.853    21701683.2234
  21263112.058   -19175587.264 9 -14687467.52547  21263111.444    21263118.8684
  21499198.986   -22050240.856 9 -16699057.76947  21499198.485    21499206.6714
  23741227.255    -5665606.948 8  -4393209.60945  23741226.961    23741237.0104
  21749962.561   -17251347.308 9 -13177750.92047  21749962.224    21749970.6864
  23549118.293    -7925663.823 8  -6161799.35545  23549117.426    23549129.6554
  23931745.878    -7001555.130 8  -5427010.74045  23931745.268    23931756.4784
  21411545.696   -18025287.473 9 -14029385.84847  21411545.536    21411554.0164
 00  5  6  0 45 30.0000000  0  8 17 23 21 09 03 15 31 29
  21712021.763   -20531184.661 8 -15327641.66247  21712021.151    21712029.5264
  21269718.106   -19140872.159 9 -14660416.79247  21269717.501    21269724.9124
  21493504.741   -22080164.190 9 -16722374.60347  21493504.237    21493512.3994
  23733933.147    -5703937.242 8  -4423077.27945  23733932.900    23733942.8914
  21744456.879   -17280280.012 9 -13200295.85747  21744456.556    21744464.8954
  23531617.011    -8017633.137 8  -6233463.62245  23531616.231    23531628.2974
  23916479.100    -7081782.222 8  -5489525.22445  23916478.487    23916489.6744
  21397060.931   -18101404.842 9 -14088697.95347  21397060.763    21397069.2054
 00  5  6  0 46  0.0000000  0  8 17 23 21 09 03 15 31 29
  21722429.686   -20476490.843 8 -15285023.13047  21722429.065    21722437.4504
  21276351.610   -19106012.795 9 -14633253.65547  21276351.019    21276358.4204
  21487846.336   -22109899.187 9 -16745544.68547  21487845.804    21487853.9094
  23726720.449    -5741840.050 8  -4452611.84945  23726720.124    23726730.1544
  21739058.047   -17308650.881 9 -13222402.99847  21739057.724    21739066.0414
  23514116.277    -8109599.265 8  -6305125.37445  23514115.477    23514127.5874
  23901283.871    -7161633.041 8  -5551746.50145  23901283.246    23901294.4154
  21382650.075   -18177133.904 9 -14147707.48547  21382649.910    21382658.3024
 00  5  6  0 46 30.0000000  0  8 17 23 21 09 03 15 31 29
  21732899.278   -20421472.801 8 -15242151.95847  21732898.677    21732907.0614
  21283012.482   -19071009.862 9 -14605978.63847  21283011.878    21283019.2914
  21482223.630   -22139446.375 9 -16768568.42347  21482223.117    21482231.2214
  23719589.558    -5779312.650 8  -4481811.17545  23719589.211    23719599.2684
  21733766.313   -17336458.889 9 -13244071.53847  21733765.987    21733774.3194
  23496616.412    -8201560.549 8  -6376783.33145  23496615.752    23496627.8664
  23886160.809    -7241104.767 8  -5613672.39445  23886160.195    23886171.2694
  21368313.524   -18252472.554 9 -14206412.79547  21368313.355    21368321.7354
 00  5  6  0 47  0.0000000  0  8 17 23 21 09 03 15 31 29
  21743430.538   -20366130.913 8 -15199028.44147  21743429.907    21743438.3134
  21289700.360   -19035864.712 9 -14578592.80547  21289699.777    21289707.1754
  21476636.483   -22168806.685 9 -16791446.53947  21476635.994    21476644.0994
  23712540.903    -5816353.082 8  -4510673.74845  23712540.580    23712550.5604
  21728581.771   -17363703.472 9 -13265301.05147  21728581.466    21728589.8584
  23479117.787    -8293516.039 8  -6448436.81045  23479117.036    23479129.1024
  23871110.230    -7320195.429 8  -5675301.35045  23871109.694    23871120.6844
  21354051.552   -18327419.163 9 -14264812.61747  21354051.378    21354059.7614
 00  5  6  0 47 30.0000000  0  8 17 23 21 09 03 15 31 29
  21754022.533   -20310469.587 8 -15155656.01947  21754021.894    21754030.3234
  21296414.236   -19000583.016 9 -14551100.57447  21296413.630    21296421.0324
  21471084.054   -22197985.036 9 -16814182.87447  21471083.538    21471091.6234
  23705574.117    -5852963.403 8  -4539201.18545  23705573.743    23705583.7884
  21723503.727   -17390388.159 9 -13286094.27347  21723503.442    21723511.9234
  23461619.639    -8385468.923 8  -6520088.25545  23461618.920    23461630.7604
  23856131.734    -7398907.299 8  -5736635.13945  23856131.215    23856142.2304
  21339863.578   -18401976.732 9 -14322909.29647  21339863.410    21339871.7844
 00  5  6  0 48  0.0000000  0  8 17 23 21 09 03 15 31 29
  21764676.591   -20254482.196 8 -15112029.51147  21764675.978    21764684.3774
  21303155.165   -18965159.171 9 -14523497.57747  21303154.573    21303161.9734
  21465567.220   -22226975.832 9 -16836773.05847  21465566.717    21465574.7814
  23698690.876    -5889134.680 8  -4567386.50545  23698690.518    23698700.5314
  21718533.730   -17416505.576 9 -13306445.47247  21718533.442    21718541.9734
  23444123.434    -8477411.425 8  -6591731.58345  23444122.732    23444134.6344
  23841227.058    -7477231.336 8  -5797666.72945  23841226.553    23841237.4674
  21325751.327   -18476136.578 9 -14380696.06547  21325751.170    21325759.4914
 00  5  6  0 48 30.0000000  0  8 17 23 21 09 03 15 31 29
  21775392.619   -20198169.312 8 -15068149.37347  21775392.000    21775400.4294
  21309922.775   -18929594.972 9 -14495785.21647  21309922.178    21309929.6024
  21460085.946   -22255779.833 9 -16859217.69647  21460085.462    21460093.4934
  23691891.400    -5924865.531 8  -4595228.64145  23691891.055    23691901.0684
  21713671.713   -17442055.672 9 -13326354.61047  21713671.418    21713679.9634
  23426629.246    -8569343.170 8  -6663366.54645  23426628.582    23426640.4284
  23826396.503    -7555165.734 8  -5858394.69345  23826396.020    23826406.8774
  21311714.959   -18549897.755 9 -14438172.18147  21311714.807    21311723.0714
 00  5  6  0 49  0.0000000  0  8 17 23 21 09 03 15 31 29
  21786170.484   -20141531.245 8 -15024015.84747  21786169.868    21786178.2904
  21316716.868   -18893891.756 9 -14467964.53047  21316716.264    21316723.6894
  21454640.150   -22284397.840 9 -16881517.39947  21454639.642    21454647.6814
  23685176.174    -5960153.658 8  -4622725.77445  23685175.814    23685185.8224
  21708917.770   -17467037.979 9 -13345821.31847  21708917.469    21708925.9294
  23409137.333    -8661263.167 8  -6734992.36145  23409136.662    23409148.4194
  23811640.494    -7632708.403 8  -5918817.41245  23811639.955    23811650.9634
  21297754.719   -18623258.749 9 -14495336.46947  21297754.572    21297762.8084
 00  5  6  0 49 30.0000000  0  8 17 23 21 09 03 15 31 29
  21797010.170   -20084568.475 8 -14979629.30647  21797009.544    21797017.9994
  21323537.131   -18858051.093 9 -14440036.74047  21323536.513    21323543.9334
  21449229.353   -22312831.258 9 -16903673.26047  21449228.848    21449236.9354
  23678545.619    -5994997.292 8  -4649876.55945  23678545.324    23678555.2634
  21704271.956   -17491452.007 9 -13364845.21447  21704271.636    21704280.0354
  23391647.821    -8753170.724 8  -6806608.47345  23391647.159    23391658.8614
  23796959.373    -7709857.524 8  -5978933.48545  23796958.879    23796969.8764
  21283870.873   -18696218.319 9 -14552187.95947  21283870.713    21283878.9124
 00  5  6  0 50  0.0000000  0  8 17 23 21 09 03 15 31 29
  21807911.530   -20027281.468 8 -14934990.10347  21807910.908    21807919.3434
  21330383.297   -18822074.264 9 -14412002.84647  21330382.703    21330390.1184
  21443853.584   -22341080.727 9 -16925685.79047  21443853.109    21443861.1374
  23671999.997    -6029394.495 8  -4676679.48045  23671999.636    23672009.6024
  21699734.265   -17515297.579 9 -13383426.15547  21699733.977    21699742.2834
  23374160.769    -8845064.975 8  -6878214.18845  23374160.116    23374171.8924
  23782353.570    -7786611.003 8  -6038741.26945  23782352.980    23782363.9154
  21270063.667   -18768775.233 9 -14608725.69247  21270063.521    21270071.6834
 00  5  6  0 50 30.0000000  0  8 17 23 21 09 03 15 31 29
  21818874.668   -19969669.991 8 -14890098.09747  21818874.038    21818882.5044
  21337255.203   -18785962.230 9 -14383863.59647  21337254.606    21337261.9894
  21438512.849   -22369146.688 9 -16947555.32847  21438512.327    21438520.3264
  23665539.602    -6063343.084 8  -4703132.82545  23665539.318    23665549.3024
  21695304.898   -17538573.848 9 -13401563.48047  21695304.603    21695312.8724
  23356676.601    -8936944.370 8  -6949808.35645  23356675.990    23356687.6464
  23767823.508    -7862966.353 8  -6098238.81645  23767822.849    23767833.7234
  21256333.459   -18840927.429 9 -14664948.05847  21256333.297    21256341.4254
 00  5  6  0 51  0.0000000  0  8 17 23 21 09 03 15 31 29
  21829899.608   -19911733.659 8 -14844952.94947  21829898.956    21829907.4554
  21344152.706   -18749715.725 9 -14355619.56647  21344152.111    21344159.4904
  21433206.837   -22397029.536 9 -16969282.17447  21433206.330    21433214.3804
  23659165.192    -6096840.646 8  -4729234.71445  23659164.881    23659174.8054
  21690984.067   -17561279.761 9 -13419256.37547  21690983.754    21690992.0034
  23339195.605    -9028807.427 8  -7021389.80245  23339194.892    23339206.4844
  23753369.735    -7938921.064 8  -6157424.20245  23753369.084    23753379.8584
  21242680.595   -18912673.286 9 -14720853.80447  21242680.429    21242688.5324
 00  5  6  0 51 30.0000000  0  8 17 23 21 09 03 15 31 29
  21840986.278   -19853472.791 8 -14799554.91547  21840985.640    21840994.1474
  21351075.486   -18713336.087 9 -14327271.79547  21351074.889    21351082.2564
  21427935.615   -22424729.915 9 -16990866.84147  21427935.109    21427943.1104
  23652876.828    -6129885.566 8  -4754983.89945  23652876.554    23652886.4604
  21686771.831   -17583414.927 9 -13436504.52847  21686771.511    21686779.7944
  23321717.670    -9120653.357 8  -7092957.85545  23321716.972    23321728.5854
  23738992.589    -8014473.344 8  -6216295.98045  23738991.888    23739002.5994
  21229105.345   -18984011.013 9 -14776441.51947  21229105.216    21229113.2894
 00  5  6  0 52  0.0000000  0  8 17 23 21 09 03 15 31 29
  21852134.742   -19794887.378 8 -14753903.98947  21852134.093    21852142.6374
  21358023.517   -18676824.073 9 -14298820.87047  21358022.918    21358030.2784
  21422699.041   -22452248.452 9 -17012309.81047  21422698.495    21422706.4264
  23646675.253    -6162474.943 8  -4780378.13045  23646674.938    23646684.7464
  21682668.407   -17604978.466 9 -13453307.26347  21682668.101    21682676.3984
  23304243.519    -9212480.567 8  -7164511.35745  23304242.759    23304254.3374
  23724692.445    -8089620.547 8  -6274852.12945  23724691.767    23724702.4344
  21215608.036   -19054939.258 9 -14831710.16147  21215607.891    21215615.9604
 00  5  6  0 52 30.0000000  0  8 17 23 21 09 03 15 31 29
  21863344.946   -19735977.519 8 -14708000.25747  21863344.292    21863352.8584
  21364996.443   -18640181.063 9 -14270267.87247  21364995.871    21365003.2224
  21417496.857   -22479585.701 9 -17033611.51647  21417496.336    21417504.3164
  23640560.642    -6194606.909 8  -4805415.93245  23640560.420    23640570.0994
  21678673.845   -17625970.232 9 -13469664.46147  21678673.507    21678681.8224
  23286773.090    -9304287.811 8  -7236049.28645  23286772.303    23286783.8224
  23710469.813    -8164360.572 8  -6333090.99045  23710469.124    23710479.7834
  21202189.001   -19125456.251 9 -14886658.35247  21202188.850    21202196.8824
 00  5  6  0 53  0.0000000  0  8 17 23 21 09 03 15 31 29
  21874616.825   -19676743.440 8 -14661843.88647  21874616.178    21874624.7854
  21371994.119   -18603407.970 9 -14241613.51347  21371993.547    21372000.9004
  21412329.119   -22506742.356 9 -17054772.50347  21412328.593    21412336.5434
  23634533.573    -6226279.395 8  -4830095.69145  23634533.283    23634542.9894
  21674788.153   -17646389.526 9 -13485575.57847  21674787.837    21674796.1784
  23269306.643    -9396073.984 8  -7307570.79545  23269305.865    23269317.2964
  23696325.078    -8238691.152 8  -6391010.81545  23696324.446    23696334.9364
  21188848.549   -19195560.315 9 -14941284.78347  21188848.406    21188856.4064
 00  5  6  0 53 30.0000000  0  8 17 23 21 09 03 15 31 29
  21885950.479   -19617184.734 8 -14615434.54547  21885949.862    21885958.4684
  21379016.456   -18566505.367 9 -14212858.23447  21379015.865    21379023.2424
  21407195.649   -22533718.810 9 -17075793.07147  21407195.107    21407203.0244
  23628594.272    -6257490.318 8  -4854415.79845  23628593.945    23628603.5844
  21671011.696   -17666235.119 9 -13501039.65247  21671011.371    21671019.7314
  23251844.527    -9487837.498 8  -7379074.66045  23251843.784    23251855.1124
  23682258.820    -8312609.616 8  -6448609.50145  23682258.184    23682268.6684
  21175586.959   -19265249.736 9 -14995588.11347  21175586.847    21175594.8014
 00  5  6  0 54  0.0000000  0  8 17 23 21 09 03 15 31 29
  21897345.885   -19557301.797 8 -14568772.54847  21897345.253    21897353.8794
  21386063.183   -18529474.519 9 -14184003.02647  21386062.597    21386069.9784
  21402096.297   -22560515.597 9 -17096673.64147  21402095.797    21402103.6974
  23622743.142    -6288237.450 8  -4878374.51445  23622742.826    23622752.5194
  21667344.385   -17685506.795 9 -13516056.52447  21667344.080    21667352.4424
  23234386.852    -9579577.260 8  -7450560.02946  23234386.170    23234397.4884
  23668271.380    -8386113.621 8  -6505885.24345  23668270.747    23668281.2344
  21162404.650   -19334522.924 9 -15049567.10847  21162404.512    21162412.4334
 00  5  6  0 54 30.0000000  0  8 17 23 21 09 03 15 31 29
  21908802.997   -19497094.194 8 -14521857.58147  21908802.392    21908811.0494
  21393134.216   -18492316.062 9 -14155048.37947  21393133.622    21393140.9964
  21397031.236   -22587132.723 9 -17117414.21647  21397030.704    21397038.6114
  23616980.825    -6318518.401 8  -4901969.96445  23616980.485    23616990.1474
  21663786.446   -17704203.755 9 -13530625.56447  21663786.123    21663794.4894
  23216934.135    -9671291.314 8  -7522025.33946  23216933.372    23216944.7494
  23654363.292    -8459200.751 8  -6562836.14345  23654362.636    23654373.1934
  21149301.906   -19403377.942 9 -15103220.25547  21149301.763    21149309.6564
 00  5  6  0 55  0.0000000  0  8 17 23 21 09 03 15 31 29
  21920321.912   -19436562.067 8 -14474689.72947  21920321.307    21920329.9964
  21400229.329   -18455030.997 9 -14125995.07647  21400228.740    21400236.0984
  21392000.080   -22613571.195 9 -17138015.57947  21391999.547    21392007.4784
  23611307.548    -6348331.093 8  -4925200.54045  23611307.242    23611316.8864
  21660337.985   -17722325.418 9 -13544746.32247  21660337.670    21660346.0264
  23199486.513    -9762978.420 8  -7593469.67546  23199485.761    23199497.0914
  23640534.829    -8531868.940 8  -6619460.59945  23640534.160    23640544.7874
  21136279.010   -19471813.315 9 -15156546.41447  21136278.869    21136286.7104
 00  5  6  0 55 30.0000000  0  8 17 23 21 09 03 15 31 29
  21931902.564   -19375705.527 8 -14427269.09247  21931901.950    21931910.6544
  21407348.376   -18417620.155 9 -14096843.77047  21407347.772    21407355.1364
  21387002.965   -22639831.019 9 -17158477.73947  21387002.476    21387010.3364
  23605723.839    -6377673.696 8  -4948064.81545  23605723.518    23605733.1424
  21656999.007   -17739871.545 9 -13558418.61547  21656998.722    21657007.0494
  23182044.337    -9854637.105 8  -7664891.87546  23182043.615    23182054.8554
  23626786.598    -8604115.773 8  -6675756.72845  23626786.006    23626796.6564
  21123336.312   -19539827.365 9 -15209544.27147  21123336.159    21123343.9614
 00  5  6  0 56  0.0000000  0  8 17 23 21 09 03 15 31 29
  21943544.819   -19314525.056 8 -14379596.05646  21943544.211    21943552.9374
  21414491.123   -18380084.758 9 -14067595.40447  21414490.527    21414497.8614
  21382039.683   -22665913.258 9 -17178801.52547  21382039.172    21382047.0264
  23600229.951    -6406543.846 8  -4970560.94545  23600229.691    23600239.1914
  21653769.629   -17756841.644 9 -13571642.05747  21653769.357    21653777.6574
  23164607.726    -9946266.168 8  -7736290.96645  23164606.986    23164618.2694
  23613118.939    -8675939.501 8  -6731723.16045  23613118.368    23613128.9314
  21110473.964   -19607418.894 9 -15262212.88747  21110473.823    21110481.5844
 00  5  6  0 56 30.0000000  0  8 17 23 21 09 03 15 31 29
  21955248.796   -19253020.328 8 -14331670.35346  21955248.188    21955256.9464
  21421657.440   -18342425.565 9 -14038250.57747  21421656.816    21421664.1794
  21377110.001   -22691818.545 9 -17198987.41647  21377109.475    21377117.3564
  23594826.372    -6434939.392 8  -4992687.26345  23594826.122    23594835.6344
  21650650.052   -17773235.231 9 -13584416.26347  21650649.767    21650658.0034
  23147177.072   -10037864.040 8  -7807665.77646  23147176.404    23147187.6194
  23599532.276    -8747337.512 8  -6787357.86546  23599531.704    23599542.1614
  21097692.419   -19674586.137 9 -15314550.89647  21097692.262    21097699.9834
 00  5  6  0 57  0.0000000  0  8 17 23 21 09 03 15 31 29
  21967014.363   -19191192.100 8 -14283492.55346  21967013.763    21967022.5344
  21428847.063   -18304643.740 9 -14008810.19247  21428846.458    21428853.8134
  21372213.863   -22717547.764 9 -17219036.11847  21372213.355    21372221.1934
  23589513.407    -6462858.946 8  -5014442.68445  23589513.140    23589522.6194
  21647640.179   -17789052.188 9 -13596741.15047  21647639.871    21647648.0864
  23129752.557   -10129429.969 8  -7879015.69445  23129751.807    23129763.0784
  23586027.005    -8818307.948 8  -6842659.39346  23586026.423    23586036.8214
  21084991.803   -19741327.799 9 -15366557.28147  21084991.644    21084999.3334
 00  5  6  0 57 30.0000000  0  8 17 23 21 09 03 15 31 29
  21978841.576   -19129039.876 8 -14235062.29446  21978840.965    21978849.7354
  21436059.982   -18266739.700 9 -13979274.57447  21436059.355    21436066.6914
  21367351.265   -22743100.918 9 -17238947.63547  21367350.741    21367358.5524
  23584291.350    -6490300.245 8  -5035825.41845  23584291.105    23584300.5604
  21644740.183   -17804291.640 9 -13608616.03447  21644739.898    21644748.1024
  23112334.459   -10220961.899 8  -7950339.12045  23112333.774    23112344.9004
  23572603.565    -8888848.222 8  -6897625.74146  23572602.927    23572613.3464
  21072372.578   -19807641.862 9 -15418230.47547  21072372.430    21072380.0814
 00  5  6  0 58  0.0000000  0  8 17 23 21 09 03 15 31 29
  21990730.412   -19066563.986 8 -14186379.85046  21990729.824    21990738.5544
  21443295.936   -18228714.505 9 -13949644.54947  21443295.316    21443302.6654
  21362522.019   -22768478.506 9 -17258722.33447  21362521.524    21362529.3684
  23579160.812    -6517261.141 8  -5056833.82445  23579160.587    23579169.9804
  21641950.217   -17818953.194 9 -13620040.60147  21641949.920    21641958.0724
  23094923.149   -10312458.468 8  -8021634.98846  23094922.418    23094933.5284
  23559262.366    -8958956.261 8  -6952255.27046  23559261.743    23559272.1834
  21059834.990   -19873527.025 9 -15469569.45847  21059834.840    21059842.4714
 00  5  6  0 58 30.0000000  0  8 17 23 21 09 03 15 31 29
  22002680.781   -19003764.641 8 -14137445.34846  22002680.191    22002688.9344
  21450554.722   -18190569.269 9 -13919920.98547  21450554.130    21450561.4664
  21357726.195   -22793680.718 9 -17278360.38747  21357725.684    21357733.4794
  23574121.982    -6543739.857 8  -5077466.51945  23574121.736    23574131.2184
  21639270.190   -17833036.990 9 -13631014.96947  21639269.885    21639278.0164
  23077518.818   -10403918.595 8  -8092902.45845  23077518.097    23077529.0704
  23546003.896    -9028629.729 8  -7006546.16446  23546003.321    23546013.6704
  21047379.270   -19938981.892 9 -15520573.15047  21047379.113    21047386.7204
 00  5  6  0 59  0.0000000  0  8 17 23 21 09 03 15 31 29
  22014692.742   -18940641.665 8 -14088258.68346  22014692.136    22014700.8684
  21457836.197   -18152304.554 9 -13890104.31847  21457835.619    21457842.9734
  21352963.657   -22818707.796 9 -17297861.96647  21352963.141    21352970.9284
  23569175.471    -6569733.940 8  -5097721.57045  23569175.260    23569184.7044
  21636700.261   -17846542.170 9 -13641538.45547  21636699.954    21636708.1204
  23060121.652   -10495340.200 8  -8164139.91045  23060120.921    23060131.8814
  23532828.531    -9097866.282 8  -7060496.60746  23532827.963    23532838.2664
  21035005.746   -20004004.722 9 -15571240.18547  21035005.579    21035013.1934
 00  5  6  0 59 30.0000000  0  8 17 23 21 09 03 15 31 29
  22026766.193   -18877195.506 8 -14038820.18346  22026765.617    22026774.3404
  21465140.216   -18113921.644 9 -13860195.55347  21465139.623    21465147.0024
  21348234.231   -22843560.963 9 -17317228.03247  21348233.715    21348241.5144
  23564321.359    -6595242.178 8  -5117598.04645  23564321.101    23564330.4984
  21634240.382   -17859468.846 9 -13651611.16847  21634240.057    21634248.2394
  23042732.114   -10586722.261 8  -8235346.56146  23042731.389    23042742.2804
  23519736.629    -9166664.283 8  -7114105.32646  23519736.066    23519746.3234
  21022714.635   -20068594.453 9 -15621569.75047  21022714.478    21022722.0624
 00  5  6  1  0  0.0000000  0  8 17 23 21 09 03 15 31 29
  22038901.179   -18813425.815 8 -13989129.59246  22038900.586    22038909.3494
  21472466.701   -18075420.683 9 -13830194.79747  21472466.111    21472473.4964
  21343537.949   -22868240.179 9 -17336458.55247  21343537.397    21343545.1784
  23559560.144    -6620262.112 8  -5137094.00845  23559559.916    23559569.2574
  21631890.770   -17871816.113 9 -13661232.38747  21631890.454    21631898.6624
  23025350.499   -10678062.813 8  -8306520.84446  23025349.713    23025360.5544
  23506728.672    -9235020.791 8  -7167370.02646  23506728.141    23506738.4004
  21010506.358   -20132748.941 9 -15671560.16547  21010506.219    21010513.7564
 00  5  6  1  0 30.0000000  0  8 17 23 21 09 03 15 31 29
  22051097.679   -18749333.089 8 -13939187.28446  22051097.063    22051105.8684
  21479815.365   -18036803.166 9 -13800103.22647  21479814.784    21479822.1774
  21338874.453   -22892746.810 9 -17355554.58847  21338873.905    21338881.6794
  23554892.145    -6644792.120 7  -5156208.24245  23554891.918    23554901.2024
  21629651.384   -17883584.045 9 -13670402.17447  21629651.074    21629659.2734
  23007976.903   -10769360.874 8  -8377662.03546  23007976.140    23007986.9194
  23493805.088    -9302934.160 8  -7220289.41246  23493804.547    23493814.8054
  20998381.062   -20196467.332 9 -15721210.76847  20998380.914    20998388.4284
 00  5  6  1  1  0.0000000  0  8 17 23 21 09 03 15 31 29
  22063355.658   -18684917.386 8 -13888993.30746  22063355.027    22063363.8414
  21487186.151   -17998069.525 9 -13769921.16447  21487185.561    21487192.9534
  21334243.902   -22917080.418 9 -17374515.80447  21334243.371    21334251.1174
  23550317.739    -6668830.162 8  -5174939.11745  23550317.505    23550326.8404
  21627522.291   -17894772.196 9 -13679120.18647  21627521.978    21627530.1944
  22990611.840   -10860614.461 8  -8448768.57846  22990611.051    22990621.6804
  23480966.271    -9370402.060 8  -7272861.69646  23480965.676    23480975.9764
  20986339.147   -20259747.692 9 -15770520.04947  20986339.000    20986346.4824
 00  5  6  1  1 30.0000000  0  8 17 23 21 09 03 15 31 29
  22075675.003   -18620179.203 8 -13838548.04846  22075674.359    22075683.1694
  21494578.791   -17959221.032 9 -13739649.60547  21494578.183    21494585.5914
  21329646.108   -22941241.865 9 -17393342.86547  21329645.554    21329653.3154
  23545837.292    -6692374.705 8  -5193285.44245  23545837.076    23545846.3794
  21625503.523   -17905380.740 9 -13687386.55047  21625503.186    21625511.4184
  22973255.425   -10951822.425 8  -8519839.55646  22973254.637    22973265.2674
  23468212.618    -9437422.730 8  -7325085.47646  23468211.966    23468222.2774
  20974380.733   -20322589.354 9 -15819487.48447  20974380.579    20974388.0404
 00  5  6  1  2  0.0000000  0  8 17 23 21 09 03 15 31 29
  22088055.709   -18555118.460 8 -13787851.43846  22088055.067    22088063.8744
  21501993.151   -17920258.185 9 -13709288.93947  21501992.530    21501999.9504
  21325080.978   -22965231.374 9 -17412035.94647  21325080.454    21325088.2124
  23541451.172    -6715423.702 8  -5211245.62845  23541451.042    23541460.1784
  21623595.134   -17915409.177 9 -13695200.88447  21623594.817    21623603.0374
  22955907.973   -11042983.055 8  -8590873.66346  22955907.216    22955917.8124
  23455544.475    -9503993.572 8  -7376958.73746  23455543.865    23455554.2294
  20962506.137   -20384990.411 9 -15868111.59147  20962505.979    20962513.3944
 00  5  6  1  2 30.0000000  0  8 17 23 21 09 03 15 31 29
  22100497.718   -18489735.606 8 -13736903.82946  22100497.054    22100505.9144
  21509429.084   -17881182.133 9 -13678840.06547  21509428.472    21509435.8824
  21320548.466   -22989049.969 9 -17430595.84847  21320547.922    21320555.6564
  23537159.657    -6737975.814 8  -5228818.63845  23537159.474    23537168.6044
  21621797.005   -17924857.946 9 -13702563.53147  21621796.692    21621804.9224
  22938569.849   -11134095.106 8  -8661869.93146  22938569.089    22938579.5594
  23442962.297    -9570112.888 8  -7428480.17846  23442961.736    23442972.0184
  20950715.573   -20446949.786 9 -15916391.52947  20950715.412    20950722.8084
 00  5  6  1  3  0.0000000  0  8 17 23 21 09 03 15 31 29
  22113001.082   -18424030.160 8 -13685704.85646  22113000.438    22113009.2724
  21516886.531   -17841993.012 9 -13648303.08647  21516885.930    21516893.3174
  21316048.479   -23012697.332 9 -17449022.31747  21316047.937    21316055.6804
  23532963.063    -6760028.496 8  -5246002.48245  23532962.859    23532972.0594
  21620109.437   -17933726.075 9 -13709473.73047  21620109.130    21620117.3134
  22921241.321   -11225156.361 8  -8732826.58546  22921240.605    22921251.0124
  23430466.379    -9635778.080 8  -7479647.75145  23430465.886    23430476.1674
  20939009.430   -20508465.570 9 -15964325.81547  20939009.276    20939016.6704
